Time,TemperatureF,DewpointF,PressureIn,WindDirection,WindDirectionDegrees,WindSpeedMPH,WindSpeedGustMPH,Humidity,HourlyPrecipIn,Conditions,Clouds,dailyrainin,SoftwareType,DateUTC
2013-01-25 00:01:00,62.1,54.8,30.26,SSE,158,0.0,-999.0,77,0.00,,,0.00,Wunderground v.1.15,2013-01-25 05:01:00,
2013-01-25 00:03:00,62.1,54.8,30.26,SSE,158,0.0,-999.0,77,0.00,,,0.00,Wunderground v.1.15,2013-01-25 05:03:00,
2013-01-25 00:06:00,62.1,54.8,30.26,SSE,158,0.0,-999.0,77,0.00,,,0.00,Wunderground v.1.15,2013-01-25 05:06:00,
2013-01-25 00:08:00,61.8,54.5,30.25,SSW,203,0.0,-999.0,77,0.00,,,0.00,Wunderground v.1.15,2013-01-25 05:08:00,
2013-01-25 00:11:00,61.8,54.5,30.25,SSW,203,0.0,-999.0,77,0.00,,,0.00,Wunderground v.1.15,2013-01-25 05:11:00,
2013-01-25 00:13:00,61.7,54.4,30.25,SSE,158,0.0,-999.0,77,0.00,,,0.00,Wunderground v.1.15,2013-01-25 05:13:00,
2013-01-25 00:16:00,61.7,54.4,30.25,SSE,158,0.0,-999.0,77,0.00,,,0.00,Wunderground v.1.15,2013-01-25 05:16:00,
2013-01-25 00:18:00,61.6,54.7,30.25,SE,135,0.0,-999.0,78,0.00,,,0.00,Wunderground v.1.15,2013-01-25 05:18:00,
2013-01-25 00:21:00,61.6,54.7,30.25,SE,135,0.0,-999.0,78,0.00,,,0.00,Wunderground v.1.15,2013-01-25 05:21:00,
2013-01-25 00:23:00,61.6,54.7,30.25,SE,135,0.0,-999.0,78,0.00,,,0.00,Wunderground v.1.15,2013-01-25 05:23:00,
2013-01-25 00:26:00,61.6,54.7,30.25,SE,135,0.0,-999.0,78,0.00,,,0.00,Wunderground v.1.15,2013-01-25 05:26:00,
2013-01-25 00:28:00,61.6,54.7,30.25,SSE,158,0.0,-999.0,78,0.00,,,0.00,Wunderground v.1.15,2013-01-25 05:28:00,
2013-01-25 00:31:00,61.6,54.7,30.25,SSE,158,0.0,-999.0,78,0.00,,,0.00,Wunderground v.1.15,2013-01-25 05:31:00,
2013-01-25 00:33:00,61.6,54.7,30.25,SE,135,0.0,-999.0,78,0.00,,,0.00,Wunderground v.1.15,2013-01-25 05:33:00,
2013-01-25 00:36:00,61.6,54.7,30.25,SE,135,0.0,-999.0,78,0.00,,,0.00,Wunderground v.1.15,2013-01-25 05:36:00,
2013-01-25 00:38:00,61.5,54.6,30.25,SSE,158,0.0,-999.0,78,0.00,,,0.00,Wunderground v.1.15,2013-01-25 05:38:00,
2013-01-25 00:41:00,61.5,54.6,30.25,SSE,158,0.0,-999.0,78,0.00,,,0.00,Wunderground v.1.15,2013-01-25 05:41:00,
2013-01-25 00:43:00,61.6,54.7,30.25,SSE,158,0.0,-999.0,78,0.00,,,0.00,Wunderground v.1.15,2013-01-25 05:43:00,
2013-01-25 00:46:00,61.6,54.7,30.25,SSE,158,0.0,-999.0,78,0.00,,,0.00,Wunderground v.1.15,2013-01-25 05:46:00,
2013-01-25 00:48:00,61.6,54.7,30.25,SSE,158,0.0,-999.0,78,0.00,,,0.00,Wunderground v.1.15,2013-01-25 05:48:00,
2013-01-25 00:51:00,61.6,54.7,30.25,SSE,158,0.0,-999.0,78,0.00,,,0.00,Wunderground v.1.15,2013-01-25 05:51:00,
2013-01-25 00:53:00,61.8,54.9,30.25,SE,135,0.0,-999.0,78,0.00,,,0.00,Wunderground v.1.15,2013-01-25 05:53:00,
2013-01-25 00:56:00,61.8,54.9,30.25,SE,135,0.0,-999.0,78,0.00,,,0.00,Wunderground v.1.15,2013-01-25 05:56:00,
2013-01-25 00:58:00,61.9,54.6,30.25,South,180,0.0,-999.0,77,0.00,,,0.00,Wunderground v.1.15,2013-01-25 05:58:00,
2013-01-25 01:01:00,61.9,54.6,30.25,South,180,0.0,-999.0,77,0.00,,,0.00,Wunderground v.1.15,2013-01-25 06:01:00,
2013-01-25 01:03:00,61.9,54.6,30.25,South,180,0.0,-999.0,77,0.00,,,0.00,Wunderground v.1.15,2013-01-25 06:03:00,
2013-01-25 01:06:00,61.9,54.6,30.25,South,180,0.0,-999.0,77,0.00,,,0.00,Wunderground v.1.15,2013-01-25 06:06:00,
2013-01-25 01:08:00,62.0,54.7,30.25,SSE,158,0.0,-999.0,77,0.00,,,0.00,Wunderground v.1.15,2013-01-25 06:08:00,
2013-01-25 01:11:00,62.0,54.7,30.25,SSE,158,0.0,-999.0,77,0.00,,,0.00,Wunderground v.1.15,2013-01-25 06:11:00,
2013-01-25 01:13:00,61.9,54.6,30.25,N/A,-737280,0.0,-999.0,77,0.00,,,0.00,Wunderground v.1.15,2013-01-25 06:13:00,
2013-01-25 01:16:00,61.9,54.6,30.25,N/A,-737280,0.0,-999.0,77,0.00,,,0.00,Wunderground v.1.15,2013-01-25 06:16:00,
2013-01-25 01:18:00,61.9,54.6,30.25,N/A,-737280,0.0,-999.0,77,0.00,,,0.00,Wunderground v.1.15,2013-01-25 06:18:00,
2013-01-25 01:21:00,61.9,54.6,30.25,N/A,-737280,0.0,-999.0,77,0.00,,,0.00,Wunderground v.1.15,2013-01-25 06:21:00,
2013-01-25 01:23:00,61.9,54.6,30.24,N/A,-737280,0.0,-999.0,77,0.00,,,0.00,Wunderground v.1.15,2013-01-25 06:23:00,
2013-01-25 01:26:00,61.9,54.6,30.24,N/A,-737280,0.0,-999.0,77,0.00,,,0.00,Wunderground v.1.15,2013-01-25 06:26:00,
2013-01-25 01:28:00,61.8,54.5,30.24,N/A,-737280,0.0,-999.0,77,0.00,,,0.00,Wunderground v.1.15,2013-01-25 06:28:00,
2013-01-25 01:31:00,61.8,54.5,30.24,N/A,-737280,0.0,-999.0,77,0.00,,,0.00,Wunderground v.1.15,2013-01-25 06:31:00,
2013-01-25 01:33:00,61.7,54.4,30.24,ESE,113,0.0,-999.0,77,0.00,,,0.00,Wunderground v.1.15,2013-01-25 06:33:00,
2013-01-25 01:36:00,61.7,54.4,30.24,ESE,113,0.0,-999.0,77,0.00,,,0.00,Wunderground v.1.15,2013-01-25 06:36:00,
2013-01-25 01:38:00,61.7,54.4,30.24,N/A,-737280,0.0,-999.0,77,0.00,,,0.00,Wunderground v.1.15,2013-01-25 06:38:00,
2013-01-25 01:41:00,61.7,54.4,30.24,N/A,-737280,0.0,-999.0,77,0.00,,,0.00,Wunderground v.1.15,2013-01-25 06:41:00,
2013-01-25 01:43:00,61.7,54.8,30.24,N/A,-737280,0.0,-999.0,78,0.00,,,0.00,Wunderground v.1.15,2013-01-25 06:43:00,
2013-01-25 01:46:00,61.7,54.8,30.24,N/A,-737280,0.0,-999.0,78,0.00,,,0.00,Wunderground v.1.15,2013-01-25 06:46:00,
2013-01-25 01:48:00,61.6,54.7,30.24,N/A,-737280,0.0,-999.0,78,0.00,,,0.00,Wunderground v.1.15,2013-01-25 06:48:00,
2013-01-25 01:51:00,61.6,54.7,30.24,N/A,-737280,0.0,-999.0,78,0.00,,,0.00,Wunderground v.1.15,2013-01-25 06:51:00,
2013-01-25 01:53:00,61.5,54.6,30.24,SE,135,0.0,-999.0,78,0.00,,,0.00,Wunderground v.1.15,2013-01-25 06:53:00,
2013-01-25 01:56:00,61.5,54.6,30.24,SE,135,0.0,-999.0,78,0.00,,,0.00,Wunderground v.1.15,2013-01-25 06:56:00,
2013-01-25 01:58:00,61.6,54.7,30.23,SE,135,0.0,-999.0,78,0.00,,,0.00,Wunderground v.1.15,2013-01-25 06:58:00,
2013-01-25 02:01:00,61.6,54.7,30.23,SE,135,0.0,-999.0,78,0.00,,,0.00,Wunderground v.1.15,2013-01-25 07:01:00,
2013-01-25 02:03:00,61.6,54.7,30.24,SSE,158,0.0,-999.0,78,0.00,,,0.00,Wunderground v.1.15,2013-01-25 07:03:00,
2013-01-25 02:06:00,61.6,54.7,30.24,SSE,158,0.0,-999.0,78,0.00,,,0.00,Wunderground v.1.15,2013-01-25 07:06:00,
2013-01-25 02:08:00,61.6,54.7,30.24,SSE,158,0.0,-999.0,78,0.00,,,0.00,Wunderground v.1.15,2013-01-25 07:08:00,
2013-01-25 02:11:00,61.6,54.7,30.24,SSE,158,0.0,-999.0,78,0.00,,,0.00,Wunderground v.1.15,2013-01-25 07:11:00,
2013-01-25 02:13:00,61.5,54.6,30.23,South,180,0.0,-999.0,78,0.00,,,0.00,Wunderground v.1.15,2013-01-25 07:13:00,
2013-01-25 02:16:00,61.5,54.6,30.23,South,180,0.0,-999.0,78,0.00,,,0.00,Wunderground v.1.15,2013-01-25 07:16:00,
2013-01-25 02:18:00,61.4,54.5,30.23,SSE,158,0.0,-999.0,78,0.00,,,0.00,Wunderground v.1.15,2013-01-25 07:18:00,
2013-01-25 02:21:00,61.4,54.5,30.23,SSE,158,0.0,-999.0,78,0.00,,,0.00,Wunderground v.1.15,2013-01-25 07:21:00,
2013-01-25 02:23:00,61.4,54.5,30.23,SSE,158,1.0,-999.0,78,0.00,,,0.00,Wunderground v.1.15,2013-01-25 07:23:00,
2013-01-25 02:26:00,61.4,54.5,30.23,SSE,158,1.0,-999.0,78,0.00,,,0.00,Wunderground v.1.15,2013-01-25 07:26:00,
2013-01-25 02:28:00,61.4,54.5,30.23,SSE,158,1.0,-999.0,78,0.00,,,0.00,Wunderground v.1.15,2013-01-25 07:28:00,
2013-01-25 02:31:00,61.4,54.5,30.23,SSE,158,1.0,-999.0,78,0.00,,,0.00,Wunderground v.1.15,2013-01-25 07:31:00,
2013-01-25 02:33:00,61.4,54.5,30.23,SE,135,0.0,-999.0,78,0.00,,,0.00,Wunderground v.1.15,2013-01-25 07:33:00,
2013-01-25 02:36:00,61.4,54.5,30.23,SE,135,0.0,-999.0,78,0.00,,,0.00,Wunderground v.1.15,2013-01-25 07:36:00,
2013-01-25 02:38:00,61.3,54.4,30.23,SSE,158,1.0,-999.0,78,0.00,,,0.00,Wunderground v.1.15,2013-01-25 07:38:00,
2013-01-25 02:41:00,61.3,54.4,30.23,SSE,158,1.0,-999.0,78,0.00,,,0.00,Wunderground v.1.15,2013-01-25 07:41:00,
2013-01-25 02:43:00,61.2,54.3,30.23,SSE,158,0.0,-999.0,78,0.00,,,0.00,Wunderground v.1.15,2013-01-25 07:43:00,
2013-01-25 02:46:00,61.2,54.3,30.23,SSE,158,0.0,-999.0,78,0.00,,,0.00,Wunderground v.1.15,2013-01-25 07:46:00,
2013-01-25 02:48:00,61.2,54.3,30.23,SE,135,1.0,-999.0,78,0.00,,,0.00,Wunderground v.1.15,2013-01-25 07:48:00,
2013-01-25 02:51:00,61.2,54.3,30.23,SE,135,1.0,-999.0,78,0.00,,,0.00,Wunderground v.1.15,2013-01-25 07:51:00,
2013-01-25 02:53:00,61.2,54.3,30.23,SSE,158,0.0,-999.0,78,0.00,,,0.00,Wunderground v.1.15,2013-01-25 07:53:00,
2013-01-25 02:56:00,61.2,54.3,30.23,SSE,158,0.0,-999.0,78,0.00,,,0.00,Wunderground v.1.15,2013-01-25 07:56:00,
2013-01-25 02:58:00,61.2,54.3,30.23,SSE,158,1.0,-999.0,78,0.00,,,0.00,Wunderground v.1.15,2013-01-25 07:58:00,
2013-01-25 03:01:00,61.2,54.3,30.23,SSE,158,1.0,-999.0,78,0.00,,,0.00,Wunderground v.1.15,2013-01-25 08:01:00,
2013-01-25 03:03:00,61.2,54.3,30.23,SE,135,0.0,-999.0,78,0.00,,,0.00,Wunderground v.1.15,2013-01-25 08:03:00,
2013-01-25 03:06:00,61.2,54.3,30.23,SE,135,0.0,-999.0,78,0.00,,,0.00,Wunderground v.1.15,2013-01-25 08:06:00,
2013-01-25 03:08:00,61.1,54.2,30.23,SE,135,0.0,-999.0,78,0.00,,,0.00,Wunderground v.1.15,2013-01-25 08:08:00,
2013-01-25 03:11:00,61.1,54.2,30.23,SE,135,0.0,-999.0,78,0.00,,,0.00,Wunderground v.1.15,2013-01-25 08:11:00,
2013-01-25 03:13:00,61.1,54.2,30.23,SSE,158,1.0,-999.0,78,0.00,,,0.00,Wunderground v.1.15,2013-01-25 08:13:00,
2013-01-25 03:16:00,61.1,54.2,30.23,SSE,158,1.0,-999.0,78,0.00,,,0.00,Wunderground v.1.15,2013-01-25 08:16:00,
2013-01-25 03:18:00,61.1,54.2,30.23,SSE,158,0.0,-999.0,78,0.00,,,0.00,Wunderground v.1.15,2013-01-25 08:18:00,
2013-01-25 03:21:00,61.1,54.2,30.23,SSE,158,0.0,-999.0,78,0.00,,,0.00,Wunderground v.1.15,2013-01-25 08:21:00,
2013-01-25 03:23:00,61.1,54.2,30.23,SE,135,1.0,-999.0,78,0.00,,,0.00,Wunderground v.1.15,2013-01-25 08:23:00,
2013-01-25 03:26:00,61.1,54.2,30.23,SE,135,1.0,-999.0,78,0.00,,,0.00,Wunderground v.1.15,2013-01-25 08:26:00,
2013-01-25 03:28:00,61.1,53.8,30.23,SE,135,1.0,-999.0,77,0.00,,,0.00,Wunderground v.1.15,2013-01-25 08:28:00,
2013-01-25 03:31:00,61.1,53.8,30.23,SE,135,1.0,-999.0,77,0.00,,,0.00,Wunderground v.1.15,2013-01-25 08:31:00,
2013-01-25 03:33:00,61.3,54.0,30.23,SSE,158,1.0,-999.0,77,0.00,,,0.00,Wunderground v.1.15,2013-01-25 08:33:00,
2013-01-25 03:36:00,61.3,54.0,30.23,SSE,158,1.0,-999.0,77,0.00,,,0.00,Wunderground v.1.15,2013-01-25 08:36:00,
2013-01-25 03:38:00,61.4,53.8,30.23,SSE,158,1.0,-999.0,76,0.00,,,0.00,Wunderground v.1.15,2013-01-25 08:38:00,
2013-01-25 03:41:00,61.4,53.8,30.23,SSE,158,1.0,-999.0,76,0.00,,,0.00,Wunderground v.1.15,2013-01-25 08:41:00,
2013-01-25 03:43:00,61.6,54.0,30.23,SSE,158,1.0,-999.0,76,0.00,,,0.00,Wunderground v.1.15,2013-01-25 08:43:00,
2013-01-25 03:46:00,61.6,54.0,30.23,SSE,158,1.0,-999.0,76,0.00,,,0.00,Wunderground v.1.15,2013-01-25 08:46:00,
2013-01-25 03:48:00,61.7,53.7,30.23,SE,135,2.0,-999.0,75,0.00,,,0.00,Wunderground v.1.15,2013-01-25 08:48:00,
2013-01-25 03:51:00,61.7,53.7,30.23,SE,135,2.0,-999.0,75,0.00,,,0.00,Wunderground v.1.15,2013-01-25 08:51:00,
2013-01-25 03:53:00,61.8,53.8,30.23,SE,135,1.0,-999.0,75,0.00,,,0.00,Wunderground v.1.15,2013-01-25 08:53:00,
2013-01-25 03:56:00,61.8,53.8,30.23,SE,135,1.0,-999.0,75,0.00,,,0.00,Wunderground v.1.15,2013-01-25 08:56:00,
2013-01-25 03:58:00,61.8,53.8,30.23,SSE,158,1.0,-999.0,75,0.00,,,0.00,Wunderground v.1.15,2013-01-25 08:58:00,
2013-01-25 04:01:00,61.8,53.8,30.23,SSE,158,1.0,-999.0,75,0.00,,,0.00,Wunderground v.1.15,2013-01-25 09:01:00,
2013-01-25 04:03:00,61.7,53.7,30.23,SE,135,1.0,-999.0,75,0.00,,,0.00,Wunderground v.1.15,2013-01-25 09:03:00,
2013-01-25 04:06:00,61.7,53.7,30.23,SE,135,1.0,-999.0,75,0.00,,,0.00,Wunderground v.1.15,2013-01-25 09:06:00,
2013-01-25 04:08:00,61.7,53.7,30.22,SSE,158,1.0,-999.0,75,0.00,,,0.00,Wunderground v.1.15,2013-01-25 09:08:00,
2013-01-25 04:11:00,61.7,53.7,30.22,SSE,158,1.0,-999.0,75,0.00,,,0.00,Wunderground v.1.15,2013-01-25 09:11:00,
2013-01-25 04:13:00,61.6,53.2,30.23,SE,135,1.0,-999.0,74,0.00,,,0.00,Wunderground v.1.15,2013-01-25 09:13:00,
2013-01-25 04:16:00,61.6,53.2,30.23,SE,135,1.0,-999.0,74,0.00,,,0.00,Wunderground v.1.15,2013-01-25 09:16:00,
2013-01-25 04:18:00,61.6,53.2,30.22,SE,135,1.0,-999.0,74,0.00,,,0.00,Wunderground v.1.15,2013-01-25 09:18:00,
2013-01-25 04:21:00,61.6,53.2,30.22,SE,135,1.0,-999.0,74,0.00,,,0.00,Wunderground v.1.15,2013-01-25 09:21:00,
2013-01-25 04:23:00,61.5,53.1,30.23,SE,135,1.0,-999.0,74,0.00,,,0.00,Wunderground v.1.15,2013-01-25 09:23:00,
2013-01-25 04:26:00,61.5,53.1,30.23,SE,135,1.0,-999.0,74,0.00,,,0.00,Wunderground v.1.15,2013-01-25 09:26:00,
2013-01-25 04:28:00,61.4,53.4,30.23,SSE,158,1.0,-999.0,75,0.00,,,0.00,Wunderground v.1.15,2013-01-25 09:28:00,
2013-01-25 04:31:00,61.4,53.4,30.23,SSE,158,1.0,-999.0,75,0.00,,,0.00,Wunderground v.1.15,2013-01-25 09:31:00,
2013-01-25 04:33:00,61.4,53.0,30.23,SE,135,1.0,-999.0,74,0.00,,,0.00,Wunderground v.1.15,2013-01-25 09:33:00,
2013-01-25 04:36:00,61.4,53.0,30.23,SE,135,1.0,-999.0,74,0.00,,,0.00,Wunderground v.1.15,2013-01-25 09:36:00,
2013-01-25 04:38:00,61.2,53.2,30.23,SE,135,0.0,-999.0,75,0.00,,,0.00,Wunderground v.1.15,2013-01-25 09:38:00,
2013-01-25 04:41:00,61.2,53.2,30.23,SE,135,0.0,-999.0,75,0.00,,,0.00,Wunderground v.1.15,2013-01-25 09:41:00,
2013-01-25 04:43:00,61.1,53.1,30.23,SSE,158,1.0,-999.0,75,0.00,,,0.00,Wunderground v.1.15,2013-01-25 09:43:00,
2013-01-25 04:46:00,61.1,53.1,30.23,SSE,158,1.0,-999.0,75,0.00,,,0.00,Wunderground v.1.15,2013-01-25 09:46:00,
2013-01-25 04:48:00,60.9,52.9,30.23,SSE,158,0.0,-999.0,75,0.00,,,0.00,Wunderground v.1.15,2013-01-25 09:48:00,
2013-01-25 04:51:00,60.9,52.9,30.23,SSE,158,0.0,-999.0,75,0.00,,,0.00,Wunderground v.1.15,2013-01-25 09:51:00,
2013-01-25 04:53:00,60.7,52.7,30.23,SE,135,1.0,-999.0,75,0.00,,,0.00,Wunderground v.1.15,2013-01-25 09:53:00,
2013-01-25 04:56:00,60.7,52.7,30.23,SE,135,1.0,-999.0,75,0.00,,,0.00,Wunderground v.1.15,2013-01-25 09:56:00,
2013-01-25 04:58:00,60.5,52.9,30.23,SE,135,1.0,-999.0,76,0.00,,,0.00,Wunderground v.1.15,2013-01-25 09:58:00,
2013-01-25 05:01:00,60.5,52.9,30.23,SE,135,1.0,-999.0,76,0.00,,,0.00,Wunderground v.1.15,2013-01-25 10:01:00,
2013-01-25 05:03:00,60.4,52.8,30.23,SSE,158,0.0,-999.0,76,0.00,,,0.00,Wunderground v.1.15,2013-01-25 10:03:00,
2013-01-25 05:06:00,60.4,52.8,30.23,SSE,158,0.0,-999.0,76,0.00,,,0.00,Wunderground v.1.15,2013-01-25 10:06:00,
2013-01-25 05:08:00,60.3,52.7,30.23,SE,135,0.0,-999.0,76,0.00,,,0.00,Wunderground v.1.15,2013-01-25 10:08:00,
2013-01-25 05:11:00,60.3,52.7,30.23,SE,135,0.0,-999.0,76,0.00,,,0.00,Wunderground v.1.15,2013-01-25 10:11:00,
2013-01-25 05:13:00,60.2,52.6,30.23,SSE,158,0.0,-999.0,76,0.00,,,0.00,Wunderground v.1.15,2013-01-25 10:13:00,
2013-01-25 05:16:00,60.2,52.6,30.23,SSE,158,0.0,-999.0,76,0.00,,,0.00,Wunderground v.1.15,2013-01-25 10:16:00,
2013-01-25 05:18:00,60.2,52.6,30.23,SSE,158,1.0,-999.0,76,0.00,,,0.00,Wunderground v.1.15,2013-01-25 10:18:00,
2013-01-25 05:21:00,60.2,52.6,30.23,SSE,158,1.0,-999.0,76,0.00,,,0.00,Wunderground v.1.15,2013-01-25 10:21:00,
2013-01-25 05:23:00,60.2,52.2,30.23,SSE,158,0.0,-999.0,75,0.00,,,0.00,Wunderground v.1.15,2013-01-25 10:23:00,
2013-01-25 05:26:00,60.2,52.2,30.23,SSE,158,0.0,-999.0,75,0.00,,,0.00,Wunderground v.1.15,2013-01-25 10:26:00,
2013-01-25 05:28:00,60.3,52.3,30.23,SE,135,1.0,-999.0,75,0.00,,,0.00,Wunderground v.1.15,2013-01-25 10:28:00,
2013-01-25 05:31:00,60.3,52.3,30.23,SE,135,1.0,-999.0,75,0.00,,,0.00,Wunderground v.1.15,2013-01-25 10:31:00,
2013-01-25 05:33:00,60.3,52.3,30.23,SE,135,1.0,-999.0,75,0.00,,,0.00,Wunderground v.1.15,2013-01-25 10:33:00,
2013-01-25 05:36:00,60.3,52.3,30.23,SE,135,1.0,-999.0,75,0.00,,,0.00,Wunderground v.1.15,2013-01-25 10:36:00,
2013-01-25 05:38:00,60.3,52.0,30.23,SE,135,1.0,-999.0,74,0.00,,,0.00,Wunderground v.1.15,2013-01-25 10:38:00,
2013-01-25 05:41:00,60.3,52.0,30.23,SE,135,1.0,-999.0,74,0.00,,,0.00,Wunderground v.1.15,2013-01-25 10:41:00,
2013-01-25 05:43:00,60.3,52.0,30.24,SE,135,1.0,-999.0,74,0.00,,,0.00,Wunderground v.1.15,2013-01-25 10:43:00,
2013-01-25 05:46:00,60.3,52.0,30.24,SE,135,1.0,-999.0,74,0.00,,,0.00,Wunderground v.1.15,2013-01-25 10:46:00,
2013-01-25 05:48:00,60.3,52.0,30.24,SSE,158,0.0,-999.0,74,0.00,,,0.00,Wunderground v.1.15,2013-01-25 10:48:00,
2013-01-25 05:51:00,60.3,52.0,30.24,SSE,158,0.0,-999.0,74,0.00,,,0.00,Wunderground v.1.15,2013-01-25 10:51:00,
2013-01-25 05:53:00,60.3,52.0,30.24,SE,135,1.0,-999.0,74,0.00,,,0.00,Wunderground v.1.15,2013-01-25 10:53:00,
2013-01-25 05:56:00,60.3,52.0,30.24,SE,135,1.0,-999.0,74,0.00,,,0.00,Wunderground v.1.15,2013-01-25 10:56:00,
2013-01-25 05:58:00,60.3,52.0,30.24,SSE,158,1.0,-999.0,74,0.00,,,0.00,Wunderground v.1.15,2013-01-25 10:58:00,
2013-01-25 06:01:00,60.3,52.0,30.24,SSE,158,1.0,-999.0,74,0.00,,,0.00,Wunderground v.1.15,2013-01-25 11:01:00,
2013-01-25 06:03:00,60.3,52.0,30.24,SSE,158,0.0,-999.0,74,0.00,,,0.00,Wunderground v.1.15,2013-01-25 11:03:00,
2013-01-25 06:06:00,60.3,52.0,30.24,SSE,158,0.0,-999.0,74,0.00,,,0.00,Wunderground v.1.15,2013-01-25 11:06:00,
2013-01-25 06:08:00,60.2,52.2,30.24,SSE,158,0.0,-999.0,75,0.00,,,0.00,Wunderground v.1.15,2013-01-25 11:08:00,
2013-01-25 06:11:00,60.2,52.2,30.24,SSE,158,0.0,-999.0,75,0.00,,,0.00,Wunderground v.1.15,2013-01-25 11:11:00,
2013-01-25 06:13:00,60.1,52.1,30.24,SSE,158,0.0,-999.0,75,0.00,,,0.00,Wunderground v.1.15,2013-01-25 11:13:00,
2013-01-25 06:16:00,60.1,52.1,30.24,SSE,158,0.0,-999.0,75,0.00,,,0.00,Wunderground v.1.15,2013-01-25 11:16:00,
2013-01-25 06:18:00,60.1,52.1,30.24,SSE,158,0.0,-999.0,75,0.00,,,0.00,Wunderground v.1.15,2013-01-25 11:18:00,
2013-01-25 06:21:00,60.1,52.1,30.24,SSE,158,0.0,-999.0,75,0.00,,,0.00,Wunderground v.1.15,2013-01-25 11:21:00,
2013-01-25 06:23:00,59.9,52.0,30.24,SSE,158,0.0,-999.0,75,0.00,,,0.00,Wunderground v.1.15,2013-01-25 11:23:00,
2013-01-25 06:26:00,59.9,52.0,30.24,SSE,158,0.0,-999.0,75,0.00,,,0.00,Wunderground v.1.15,2013-01-25 11:26:00,
2013-01-25 06:28:00,59.9,52.0,30.24,SE,135,0.0,-999.0,75,0.00,,,0.00,Wunderground v.1.15,2013-01-25 11:28:00,
2013-01-25 06:31:00,59.9,52.0,30.24,SE,135,0.0,-999.0,75,0.00,,,0.00,Wunderground v.1.15,2013-01-25 11:31:00,
2013-01-25 06:33:00,59.9,52.3,30.24,SE,135,1.0,-999.0,76,0.00,,,0.00,Wunderground v.1.15,2013-01-25 11:33:00,
2013-01-25 06:36:00,59.9,52.3,30.24,SE,135,1.0,-999.0,76,0.00,,,0.00,Wunderground v.1.15,2013-01-25 11:36:00,
2013-01-25 06:38:00,60.0,52.1,30.24,SE,135,0.0,-999.0,75,0.00,,,0.00,Wunderground v.1.15,2013-01-25 11:38:00,
2013-01-25 06:41:00,60.0,52.1,30.24,SE,135,0.0,-999.0,75,0.00,,,0.00,Wunderground v.1.15,2013-01-25 11:41:00,
2013-01-25 06:43:00,60.0,52.1,30.25,SSE,158,1.0,-999.0,75,0.00,,,0.00,Wunderground v.1.15,2013-01-25 11:43:00,
2013-01-25 06:46:00,60.0,52.1,30.25,SSE,158,1.0,-999.0,75,0.00,,,0.00,Wunderground v.1.15,2013-01-25 11:46:00,
2013-01-25 06:48:00,60.1,52.1,30.25,SSE,158,0.0,-999.0,75,0.00,,,0.00,Wunderground v.1.15,2013-01-25 11:48:00,
2013-01-25 06:51:00,60.1,52.1,30.25,SSE,158,0.0,-999.0,75,0.00,,,0.00,Wunderground v.1.15,2013-01-25 11:51:00,
2013-01-25 06:53:00,60.2,52.2,30.25,SSE,158,1.0,-999.0,75,0.00,,,0.00,Wunderground v.1.15,2013-01-25 11:53:00,
2013-01-25 06:56:00,60.2,52.2,30.25,SSE,158,1.0,-999.0,75,0.00,,,0.00,Wunderground v.1.15,2013-01-25 11:56:00,
2013-01-25 06:58:00,60.3,52.3,30.25,SE,135,1.0,-999.0,75,0.00,,,0.00,Wunderground v.1.15,2013-01-25 11:58:00,
2013-01-25 07:01:00,60.3,52.3,30.25,SE,135,1.0,-999.0,75,0.00,,,0.00,Wunderground v.1.15,2013-01-25 12:01:00,
2013-01-25 07:03:00,60.5,52.2,30.25,SSE,158,1.0,-999.0,74,0.00,,,0.00,Wunderground v.1.15,2013-01-25 12:03:00,
2013-01-25 07:06:00,60.5,52.2,30.25,SSE,158,1.0,-999.0,74,0.00,,,0.00,Wunderground v.1.15,2013-01-25 12:06:00,
2013-01-25 07:08:00,60.7,52.4,30.25,SSE,158,1.0,-999.0,74,0.00,,,0.00,Wunderground v.1.15,2013-01-25 12:08:00,
2013-01-25 07:11:00,60.7,52.4,30.25,SSE,158,1.0,-999.0,74,0.00,,,0.00,Wunderground v.1.15,2013-01-25 12:11:00,
2013-01-25 07:13:00,60.8,52.1,30.25,SSE,158,1.0,-999.0,73,0.00,,,0.00,Wunderground v.1.15,2013-01-25 12:13:00,
2013-01-25 07:16:00,60.8,52.1,30.25,SSE,158,1.0,-999.0,73,0.00,,,0.00,Wunderground v.1.15,2013-01-25 12:16:00,
2013-01-25 07:18:00,60.9,52.2,30.25,SSE,158,0.0,-999.0,73,0.00,,,0.00,Wunderground v.1.15,2013-01-25 12:18:00,
2013-01-25 07:21:00,60.9,52.2,30.25,SSE,158,0.0,-999.0,73,0.00,,,0.00,Wunderground v.1.15,2013-01-25 12:21:00,
2013-01-25 07:23:00,61.0,52.3,30.25,SSE,158,1.0,-999.0,73,0.00,,,0.00,Wunderground v.1.15,2013-01-25 12:23:00,
2013-01-25 07:26:00,61.0,52.3,30.25,SSE,158,1.0,-999.0,73,0.00,,,0.00,Wunderground v.1.15,2013-01-25 12:26:00,
2013-01-25 07:28:00,61.0,51.9,30.25,SSE,158,1.0,-999.0,72,0.00,,,0.00,Wunderground v.1.15,2013-01-25 12:28:00,
2013-01-25 07:31:00,61.0,51.9,30.25,SSE,158,1.0,-999.0,72,0.00,,,0.00,Wunderground v.1.15,2013-01-25 12:31:00,
2013-01-25 07:33:00,61.2,52.1,30.25,SSE,158,1.0,-999.0,72,0.00,,,0.00,Wunderground v.1.15,2013-01-25 12:33:00,
2013-01-25 07:36:00,61.2,52.1,30.25,SSE,158,1.0,-999.0,72,0.00,,,0.00,Wunderground v.1.15,2013-01-25 12:36:00,
2013-01-25 07:38:00,61.5,52.4,30.25,SSE,158,0.0,-999.0,72,0.00,,,0.00,Wunderground v.1.15,2013-01-25 12:38:00,
2013-01-25 07:41:00,61.5,52.4,30.25,SSE,158,0.0,-999.0,72,0.00,,,0.00,Wunderground v.1.15,2013-01-25 12:41:00,
2013-01-25 07:43:00,62.1,53.0,30.26,SE,135,0.0,-999.0,72,0.00,,,0.00,Wunderground v.1.15,2013-01-25 12:43:00,
2013-01-25 07:46:00,62.1,53.0,30.26,SE,135,0.0,-999.0,72,0.00,,,0.00,Wunderground v.1.15,2013-01-25 12:46:00,
2013-01-25 07:48:00,62.8,52.9,30.26,SE,135,0.0,-999.0,70,0.00,,,0.00,Wunderground v.1.15,2013-01-25 12:48:00,
2013-01-25 07:51:00,62.8,52.9,30.26,SE,135,0.0,-999.0,70,0.00,,,0.00,Wunderground v.1.15,2013-01-25 12:51:00,
2013-01-25 07:53:00,62.9,53.0,30.26,SE,135,0.0,-999.0,70,0.00,,,0.00,Wunderground v.1.15,2013-01-25 12:53:00,
2013-01-25 07:56:00,62.9,53.0,30.26,SE,135,0.0,-999.0,70,0.00,,,0.00,Wunderground v.1.15,2013-01-25 12:56:00,
2013-01-25 07:58:00,62.8,52.9,30.26,South,180,0.0,-999.0,70,0.00,,,0.00,Wunderground v.1.15,2013-01-25 12:58:00,
2013-01-25 08:01:00,62.8,52.9,30.26,South,180,0.0,-999.0,70,0.00,,,0.00,Wunderground v.1.15,2013-01-25 13:01:00,
2013-01-25 08:03:00,63.1,53.2,30.26,SSE,158,1.0,-999.0,70,0.00,,,0.00,Wunderground v.1.15,2013-01-25 13:03:00,
2013-01-25 08:06:00,63.1,53.2,30.26,SSE,158,1.0,-999.0,70,0.00,,,0.00,Wunderground v.1.15,2013-01-25 13:06:00,
2013-01-25 08:08:00,63.1,52.8,30.26,SSE,158,1.0,-999.0,69,0.00,,,0.00,Wunderground v.1.15,2013-01-25 13:08:00,
2013-01-25 08:11:00,63.1,52.8,30.26,SSE,158,1.0,-999.0,69,0.00,,,0.00,Wunderground v.1.15,2013-01-25 13:11:00,
2013-01-25 08:13:00,63.2,53.3,30.26,SSE,158,1.0,-999.0,70,0.00,,,0.00,Wunderground v.1.15,2013-01-25 13:13:00,
2013-01-25 08:16:00,63.2,53.3,30.26,SSE,158,1.0,-999.0,70,0.00,,,0.00,Wunderground v.1.15,2013-01-25 13:16:00,
2013-01-25 08:18:00,63.2,53.3,30.26,SE,135,1.0,-999.0,70,0.00,,,0.00,Wunderground v.1.15,2013-01-25 13:18:00,
2013-01-25 08:21:00,63.2,53.3,30.26,SE,135,1.0,-999.0,70,0.00,,,0.00,Wunderground v.1.15,2013-01-25 13:21:00,
2013-01-25 08:23:00,63.1,53.2,30.27,SSE,158,1.0,-999.0,70,0.00,,,0.00,Wunderground v.1.15,2013-01-25 13:23:00,
2013-01-25 08:26:00,63.1,53.2,30.27,SSE,158,1.0,-999.0,70,0.00,,,0.00,Wunderground v.1.15,2013-01-25 13:26:00,
2013-01-25 08:28:00,63.1,53.2,30.26,SSE,158,1.0,-999.0,70,0.00,,,0.00,Wunderground v.1.15,2013-01-25 13:28:00,
2013-01-25 08:31:00,63.1,53.2,30.26,SSE,158,1.0,-999.0,70,0.00,,,0.00,Wunderground v.1.15,2013-01-25 13:31:00,
2013-01-25 08:33:00,63.3,53.0,30.27,SSE,158,1.0,-999.0,69,0.00,,,0.00,Wunderground v.1.15,2013-01-25 13:33:00,
2013-01-25 08:36:00,63.3,53.0,30.27,SSE,158,1.0,-999.0,69,0.00,,,0.00,Wunderground v.1.15,2013-01-25 13:36:00,
2013-01-25 08:38:00,63.4,53.4,30.27,SE,135,0.0,-999.0,70,0.00,,,0.00,Wunderground v.1.15,2013-01-25 13:38:00,
2013-01-25 08:41:00,63.4,53.4,30.27,SE,135,0.0,-999.0,70,0.00,,,0.00,Wunderground v.1.15,2013-01-25 13:41:00,
2013-01-25 08:43:00,63.4,53.0,30.27,SSE,158,1.0,-999.0,69,0.00,,,0.00,Wunderground v.1.15,2013-01-25 13:43:00,
2013-01-25 08:46:00,63.4,53.0,30.27,SSE,158,1.0,-999.0,69,0.00,,,0.00,Wunderground v.1.15,2013-01-25 13:46:00,
2013-01-25 08:48:00,63.6,53.2,30.27,SSE,158,0.0,-999.0,69,0.00,,,0.00,Wunderground v.1.15,2013-01-25 13:48:00,
2013-01-25 08:51:00,63.6,53.2,30.27,SSE,158,0.0,-999.0,69,0.00,,,0.00,Wunderground v.1.15,2013-01-25 13:51:00,
2013-01-25 08:53:00,63.9,53.1,30.27,SSE,158,1.0,-999.0,68,0.00,,,0.00,Wunderground v.1.15,2013-01-25 13:53:00,
2013-01-25 08:56:00,63.9,53.1,30.27,SSE,158,1.0,-999.0,68,0.00,,,0.00,Wunderground v.1.15,2013-01-25 13:56:00,
2013-01-25 08:58:00,64.2,53.0,30.27,SSE,158,1.0,-999.0,67,0.00,,,0.00,Wunderground v.1.15,2013-01-25 13:58:00,
2013-01-25 09:01:00,64.2,53.0,30.27,SSE,158,1.0,-999.0,67,0.00,,,0.00,Wunderground v.1.15,2013-01-25 14:01:00,
2013-01-25 09:03:00,64.5,53.3,30.27,SE,135,1.0,-999.0,67,0.00,,,0.00,Wunderground v.1.15,2013-01-25 14:03:00,
2013-01-25 09:06:00,64.5,53.3,30.27,SE,135,1.0,-999.0,67,0.00,,,0.00,Wunderground v.1.15,2013-01-25 14:06:00,
2013-01-25 09:08:00,64.9,53.3,30.28,SSE,158,1.0,-999.0,66,0.00,,,0.00,Wunderground v.1.15,2013-01-25 14:08:00,
2013-01-25 09:11:00,64.9,53.3,30.28,SSE,158,1.0,-999.0,66,0.00,,,0.00,Wunderground v.1.15,2013-01-25 14:11:00,
2013-01-25 09:13:00,66.2,54.1,30.28,SSE,158,1.0,-999.0,65,0.00,,,0.00,Wunderground v.1.15,2013-01-25 14:13:00,
2013-01-25 09:16:00,66.2,54.1,30.28,SSE,158,1.0,-999.0,65,0.00,,,0.00,Wunderground v.1.15,2013-01-25 14:16:00,
2013-01-25 09:18:00,67.5,53.6,30.28,SSE,158,1.0,-999.0,61,0.00,,,0.00,Wunderground v.1.15,2013-01-25 14:18:00,
2013-01-25 09:21:00,67.5,53.6,30.28,SSE,158,1.0,-999.0,61,0.00,,,0.00,Wunderground v.1.15,2013-01-25 14:21:00,
2013-01-25 09:23:00,67.7,53.8,30.28,SSE,158,1.0,-999.0,61,0.00,,,0.00,Wunderground v.1.15,2013-01-25 14:23:00,
2013-01-25 09:26:00,67.7,53.8,30.28,SSE,158,1.0,-999.0,61,0.00,,,0.00,Wunderground v.1.15,2013-01-25 14:26:00,
2013-01-25 09:28:00,68.4,54.0,30.28,SSE,158,1.0,-999.0,60,0.00,,,0.00,Wunderground v.1.15,2013-01-25 14:28:00,
2013-01-25 09:31:00,68.4,54.0,30.28,SSE,158,1.0,-999.0,60,0.00,,,0.00,Wunderground v.1.15,2013-01-25 14:31:00,
2013-01-25 09:33:00,69.6,54.6,30.28,SSE,158,1.0,-999.0,59,0.00,,,0.00,Wunderground v.1.15,2013-01-25 14:33:00,
2013-01-25 09:36:00,69.6,54.6,30.28,SSE,158,1.0,-999.0,59,0.00,,,0.00,Wunderground v.1.15,2013-01-25 14:36:00,
2013-01-25 09:38:00,70.4,54.0,30.29,SE,135,1.0,-999.0,56,0.00,,,0.00,Wunderground v.1.15,2013-01-25 14:38:00,
2013-01-25 09:41:00,70.4,54.0,30.29,SE,135,1.0,-999.0,56,0.00,,,0.00,Wunderground v.1.15,2013-01-25 14:41:00,
2013-01-25 09:43:00,70.8,54.8,30.29,SSE,158,1.0,-999.0,57,0.00,,,0.00,Wunderground v.1.15,2013-01-25 14:43:00,
2013-01-25 09:46:00,70.8,54.8,30.29,SSE,158,1.0,-999.0,57,0.00,,,0.00,Wunderground v.1.15,2013-01-25 14:46:00,
2013-01-25 09:48:00,70.5,54.5,30.29,SSE,158,1.0,-999.0,57,0.00,,,0.00,Wunderground v.1.15,2013-01-25 14:48:00,
2013-01-25 09:51:00,70.5,54.5,30.29,SSE,158,1.0,-999.0,57,0.00,,,0.00,Wunderground v.1.15,2013-01-25 14:51:00,
2013-01-25 09:53:00,70.4,55.4,30.29,SSE,158,1.0,-999.0,59,0.00,,,0.00,Wunderground v.1.15,2013-01-25 14:53:00,
2013-01-25 09:56:00,70.4,55.4,30.29,SSE,158,1.0,-999.0,59,0.00,,,0.00,Wunderground v.1.15,2013-01-25 14:56:00,
2013-01-25 09:58:00,71.5,55.0,30.29,SSE,158,1.0,-999.0,56,0.00,,,0.00,Wunderground v.1.15,2013-01-25 14:58:00,
2013-01-25 10:01:00,71.5,55.0,30.29,SSE,158,1.0,-999.0,56,0.00,,,0.00,Wunderground v.1.15,2013-01-25 15:01:00,
2013-01-25 10:03:00,72.1,56.0,30.29,SSE,158,1.0,-999.0,57,0.00,,,0.00,Wunderground v.1.15,2013-01-25 15:03:00,
2013-01-25 10:06:00,72.1,56.0,30.29,SSE,158,1.0,-999.0,57,0.00,,,0.00,Wunderground v.1.15,2013-01-25 15:06:00,
2013-01-25 10:08:00,73.0,55.9,30.29,SSE,158,1.0,-999.0,55,0.00,,,0.00,Wunderground v.1.15,2013-01-25 15:08:00,
2013-01-25 10:11:00,73.0,55.9,30.29,SSE,158,1.0,-999.0,55,0.00,,,0.00,Wunderground v.1.15,2013-01-25 15:11:00,
2013-01-25 10:13:00,73.6,55.9,30.29,SE,135,1.0,-999.0,54,0.00,,,0.00,Wunderground v.1.15,2013-01-25 15:13:00,
2013-01-25 10:16:00,73.6,55.9,30.29,SE,135,1.0,-999.0,54,0.00,,,0.00,Wunderground v.1.15,2013-01-25 15:16:00,
2013-01-25 10:18:00,74.1,56.9,30.28,ESE,113,1.0,-999.0,55,0.00,,,0.00,Wunderground v.1.15,2013-01-25 15:18:00,
2013-01-25 10:21:00,74.1,56.9,30.28,ESE,113,1.0,-999.0,55,0.00,,,0.00,Wunderground v.1.15,2013-01-25 15:21:00,
2013-01-25 10:23:00,74.5,56.2,30.28,SSE,158,2.0,-999.0,53,0.00,,,0.00,Wunderground v.1.15,2013-01-25 15:23:00,
2013-01-25 10:26:00,74.5,56.2,30.28,SSE,158,2.0,-999.0,53,0.00,,,0.00,Wunderground v.1.15,2013-01-25 15:26:00,
2013-01-25 10:28:00,74.2,57.0,30.29,SSE,158,2.0,-999.0,55,0.00,,,0.00,Wunderground v.1.15,2013-01-25 15:28:00,
2013-01-25 10:31:00,74.2,57.0,30.29,SSE,158,2.0,-999.0,55,0.00,,,0.00,Wunderground v.1.15,2013-01-25 15:31:00,
2013-01-25 10:33:00,74.2,57.0,30.29,South,180,1.0,-999.0,55,0.00,,,0.00,Wunderground v.1.15,2013-01-25 15:33:00,
2013-01-25 10:36:00,74.2,57.0,30.29,South,180,1.0,-999.0,55,0.00,,,0.00,Wunderground v.1.15,2013-01-25 15:36:00,
2013-01-25 10:38:00,74.6,57.4,30.28,SSE,158,1.0,-999.0,55,0.00,,,0.00,Wunderground v.1.15,2013-01-25 15:38:00,
2013-01-25 10:41:00,74.6,57.4,30.28,SSE,158,1.0,-999.0,55,0.00,,,0.00,Wunderground v.1.15,2013-01-25 15:41:00,
2013-01-25 10:43:00,74.9,58.1,30.28,South,180,2.0,-999.0,56,0.00,,,0.00,Wunderground v.1.15,2013-01-25 15:43:00,
2013-01-25 10:46:00,74.9,58.1,30.28,South,180,2.0,-999.0,56,0.00,,,0.00,Wunderground v.1.15,2013-01-25 15:46:00,
2013-01-25 10:48:00,75.0,57.7,30.28,SSE,158,2.0,-999.0,55,0.00,,,0.00,Wunderground v.1.15,2013-01-25 15:48:00,
2013-01-25 10:51:00,75.0,57.7,30.28,SSE,158,2.0,-999.0,55,0.00,,,0.00,Wunderground v.1.15,2013-01-25 15:51:00,
2013-01-25 10:53:00,75.4,58.1,30.28,SSE,158,2.0,-999.0,55,0.00,,,0.00,Wunderground v.1.15,2013-01-25 15:53:00,
2013-01-25 10:56:00,75.4,58.1,30.28,SSE,158,2.0,-999.0,55,0.00,,,0.00,Wunderground v.1.15,2013-01-25 15:56:00,
2013-01-25 10:58:00,75.3,58.0,30.28,SSE,158,2.0,-999.0,55,0.00,,,0.00,Wunderground v.1.15,2013-01-25 15:58:00,
2013-01-25 11:01:00,75.3,58.0,30.28,SSE,158,2.0,-999.0,55,0.00,,,0.00,Wunderground v.1.15,2013-01-25 16:01:00,
2013-01-25 11:03:00,75.7,58.9,30.28,SSE,158,2.0,-999.0,56,0.00,,,0.00,Wunderground v.1.15,2013-01-25 16:03:00,
2013-01-25 11:06:00,75.7,58.9,30.28,SSE,158,2.0,-999.0,56,0.00,,,0.00,Wunderground v.1.15,2013-01-25 16:06:00,
2013-01-25 11:08:00,75.6,58.3,30.27,SSE,158,3.0,-999.0,55,0.00,,,0.00,Wunderground v.1.15,2013-01-25 16:08:00,
2013-01-25 11:11:00,75.6,58.3,30.27,SSE,158,3.0,-999.0,55,0.00,,,0.00,Wunderground v.1.15,2013-01-25 16:11:00,
2013-01-25 11:13:00,75.7,59.4,30.27,SSW,203,2.0,-999.0,57,0.00,,,0.00,Wunderground v.1.15,2013-01-25 16:13:00,
2013-01-25 11:16:00,75.7,59.4,30.27,SSW,203,2.0,-999.0,57,0.00,,,0.00,Wunderground v.1.15,2013-01-25 16:16:00,
2013-01-25 11:18:00,75.6,58.8,30.27,SSW,203,3.0,-999.0,56,0.00,,,0.00,Wunderground v.1.15,2013-01-25 16:18:00,
2013-01-25 11:21:00,75.6,58.8,30.27,SSW,203,3.0,-999.0,56,0.00,,,0.00,Wunderground v.1.15,2013-01-25 16:21:00,
2013-01-25 11:23:00,75.7,59.4,30.27,SSE,158,2.0,-999.0,57,0.00,,,0.00,Wunderground v.1.15,2013-01-25 16:23:00,
2013-01-25 11:26:00,75.7,59.4,30.27,SSE,158,2.0,-999.0,57,0.00,,,0.00,Wunderground v.1.15,2013-01-25 16:26:00,
2013-01-25 11:28:00,75.9,60.5,30.26,SSW,203,2.0,-999.0,59,0.00,,,0.00,Wunderground v.1.15,2013-01-25 16:28:00,
2013-01-25 11:31:00,75.9,60.5,30.26,SSW,203,2.0,-999.0,59,0.00,,,0.00,Wunderground v.1.15,2013-01-25 16:31:00,
2013-01-25 11:33:00,76.2,59.4,30.26,SSE,158,2.0,-999.0,56,0.00,,,0.00,Wunderground v.1.15,2013-01-25 16:33:00,
2013-01-25 11:36:00,76.2,59.4,30.26,SSE,158,2.0,-999.0,56,0.00,,,0.00,Wunderground v.1.15,2013-01-25 16:36:00,
2013-01-25 11:38:00,76.3,58.9,30.26,South,180,2.0,-999.0,55,0.00,,,0.00,Wunderground v.1.15,2013-01-25 16:38:00,
2013-01-25 11:41:00,76.3,58.9,30.26,South,180,2.0,-999.0,55,0.00,,,0.00,Wunderground v.1.15,2013-01-25 16:41:00,
2013-01-25 11:43:00,76.2,58.9,30.26,SSW,203,2.0,-999.0,55,0.00,,,0.00,Wunderground v.1.15,2013-01-25 16:43:00,
2013-01-25 11:46:00,76.2,58.9,30.26,SSW,203,2.0,-999.0,55,0.00,,,0.00,Wunderground v.1.15,2013-01-25 16:46:00,
2013-01-25 11:48:00,76.1,59.8,30.26,SW,225,2.0,-999.0,57,0.00,,,0.00,Wunderground v.1.15,2013-01-25 16:48:00,
2013-01-25 11:51:00,76.1,59.8,30.26,SW,225,2.0,-999.0,57,0.00,,,0.00,Wunderground v.1.15,2013-01-25 16:51:00,
2013-01-25 11:53:00,76.2,59.4,30.26,SSE,158,2.0,-999.0,56,0.00,,,0.00,Wunderground v.1.15,2013-01-25 16:53:00,
2013-01-25 11:56:00,76.2,59.4,30.26,SSE,158,2.0,-999.0,56,0.00,,,0.00,Wunderground v.1.15,2013-01-25 16:56:00,
2013-01-25 11:58:00,75.6,59.8,30.25,South,180,3.0,-999.0,58,0.00,,,0.00,Wunderground v.1.15,2013-01-25 16:58:00,
2013-01-25 12:01:00,75.6,59.8,30.25,South,180,3.0,-999.0,58,0.00,,,0.00,Wunderground v.1.15,2013-01-25 17:01:00,
2013-01-25 12:03:00,74.9,60.1,30.25,SSE,158,4.0,-999.0,60,0.00,,,0.00,Wunderground v.1.15,2013-01-25 17:03:00,
2013-01-25 12:06:00,74.9,60.1,30.25,SSE,158,4.0,-999.0,60,0.00,,,0.00,Wunderground v.1.15,2013-01-25 17:06:00,
2013-01-25 12:08:00,75.0,61.1,30.25,South,180,2.0,-999.0,62,0.00,,,0.00,Wunderground v.1.15,2013-01-25 17:08:00,
2013-01-25 12:11:00,75.0,61.1,30.25,South,180,2.0,-999.0,62,0.00,,,0.00,Wunderground v.1.15,2013-01-25 17:11:00,
2013-01-25 12:13:00,74.8,60.9,30.25,South,180,4.0,-999.0,62,0.00,,,0.00,Wunderground v.1.15,2013-01-25 17:13:00,
2013-01-25 12:16:00,74.8,60.9,30.25,South,180,4.0,-999.0,62,0.00,,,0.00,Wunderground v.1.15,2013-01-25 17:16:00,
2013-01-25 12:18:00,74.2,61.2,30.25,South,180,4.0,-999.0,64,0.00,,,0.00,Wunderground v.1.15,2013-01-25 17:18:00,
2013-01-25 12:21:00,74.2,61.2,30.25,South,180,4.0,-999.0,64,0.00,,,0.00,Wunderground v.1.15,2013-01-25 17:21:00,
2013-01-25 12:23:00,73.7,60.8,30.24,SSE,158,4.0,-999.0,64,0.00,,,0.00,Wunderground v.1.15,2013-01-25 17:23:00,
2013-01-25 12:26:00,73.7,60.8,30.24,SSE,158,4.0,-999.0,64,0.00,,,0.00,Wunderground v.1.15,2013-01-25 17:26:00,
2013-01-25 12:28:00,73.5,61.0,30.24,SSE,158,4.0,-999.0,65,0.00,,,0.00,Wunderground v.1.15,2013-01-25 17:28:00,
2013-01-25 12:31:00,73.5,61.0,30.24,SSE,158,4.0,-999.0,65,0.00,,,0.00,Wunderground v.1.15,2013-01-25 17:31:00,
2013-01-25 12:33:00,74.3,61.8,30.24,SSE,158,4.0,-999.0,65,0.00,,,0.00,Wunderground v.1.15,2013-01-25 17:33:00,
2013-01-25 12:36:00,74.3,61.8,30.24,SSE,158,4.0,-999.0,65,0.00,,,0.00,Wunderground v.1.15,2013-01-25 17:36:00,
2013-01-25 12:38:00,74.5,61.5,30.24,SSE,158,3.0,-999.0,64,0.00,,,0.00,Wunderground v.1.15,2013-01-25 17:38:00,
2013-01-25 12:41:00,74.5,61.5,30.24,SSE,158,3.0,-999.0,64,0.00,,,0.00,Wunderground v.1.15,2013-01-25 17:41:00,
2013-01-25 12:43:00,74.8,62.2,30.23,SSE,158,4.0,-999.0,65,0.00,,,0.00,Wunderground v.1.15,2013-01-25 17:43:00,
2013-01-25 12:46:00,74.8,62.2,30.23,SSE,158,4.0,-999.0,65,0.00,,,0.00,Wunderground v.1.15,2013-01-25 17:46:00,
2013-01-25 12:48:00,74.6,62.1,30.23,SSE,158,4.0,-999.0,65,0.00,,,0.00,Wunderground v.1.15,2013-01-25 17:48:00,
2013-01-25 12:51:00,74.6,62.1,30.23,SSE,158,4.0,-999.0,65,0.00,,,0.00,Wunderground v.1.15,2013-01-25 17:51:00,
2013-01-25 12:53:00,74.1,62.0,30.23,SSE,158,3.0,-999.0,66,0.00,,,0.00,Wunderground v.1.15,2013-01-25 17:53:00,
2013-01-25 12:56:00,74.1,62.0,30.23,SSE,158,3.0,-999.0,66,0.00,,,0.00,Wunderground v.1.15,2013-01-25 17:56:00,
2013-01-25 12:58:00,73.9,62.2,30.23,South,180,3.0,-999.0,67,0.00,,,0.00,Wunderground v.1.15,2013-01-25 17:58:00,
2013-01-25 13:01:00,73.9,62.2,30.23,South,180,3.0,-999.0,67,0.00,,,0.00,Wunderground v.1.15,2013-01-25 18:01:00,
2013-01-25 13:03:00,73.6,62.0,30.22,SSE,158,3.0,-999.0,67,0.00,,,0.00,Wunderground v.1.15,2013-01-25 18:03:00,
2013-01-25 13:06:00,73.6,62.0,30.22,SSE,158,3.0,-999.0,67,0.00,,,0.00,Wunderground v.1.15,2013-01-25 18:06:00,
2013-01-25 13:08:00,74.4,63.1,30.22,SSE,158,3.0,-999.0,68,0.00,,,0.00,Wunderground v.1.15,2013-01-25 18:08:00,
2013-01-25 13:11:00,74.4,63.1,30.22,SSE,158,3.0,-999.0,68,0.00,,,0.00,Wunderground v.1.15,2013-01-25 18:11:00,
2013-01-25 13:13:00,74.9,59.1,30.22,SSE,158,3.0,-999.0,58,0.00,,,0.00,Wunderground v.1.15,2013-01-25 18:13:00,
2013-01-25 13:16:00,74.9,59.1,30.22,SSE,158,3.0,-999.0,58,0.00,,,0.00,Wunderground v.1.15,2013-01-25 18:16:00,
2013-01-25 13:18:00,74.8,57.5,30.22,SSW,203,3.0,-999.0,55,0.00,,,0.00,Wunderground v.1.15,2013-01-25 18:18:00,
2013-01-25 13:21:00,74.8,57.5,30.22,SSW,203,3.0,-999.0,55,0.00,,,0.00,Wunderground v.1.15,2013-01-25 18:21:00,
2013-01-25 13:23:00,74.9,58.1,30.21,SW,225,2.0,-999.0,56,0.00,,,0.00,Wunderground v.1.15,2013-01-25 18:23:00,
2013-01-25 13:26:00,74.9,58.1,30.21,SW,225,2.0,-999.0,56,0.00,,,0.00,Wunderground v.1.15,2013-01-25 18:26:00,
2013-01-25 13:28:00,75.2,56.9,30.21,SSW,203,3.0,-999.0,53,0.00,,,0.00,Wunderground v.1.15,2013-01-25 18:28:00,
2013-01-25 13:31:00,75.2,56.9,30.21,SSW,203,3.0,-999.0,53,0.00,,,0.00,Wunderground v.1.15,2013-01-25 18:31:00,
2013-01-25 13:33:00,75.5,58.2,30.21,SW,225,3.0,-999.0,55,0.00,,,0.00,Wunderground v.1.15,2013-01-25 18:33:00,
2013-01-25 13:36:00,75.5,58.2,30.21,SW,225,3.0,-999.0,55,0.00,,,0.00,Wunderground v.1.15,2013-01-25 18:36:00,
2013-01-25 13:38:00,75.9,58.6,30.20,SSW,203,2.0,-999.0,55,0.00,,,0.00,Wunderground v.1.15,2013-01-25 18:38:00,
2013-01-25 13:41:00,75.9,58.6,30.20,SSW,203,2.0,-999.0,55,0.00,,,0.00,Wunderground v.1.15,2013-01-25 18:41:00,
2013-01-25 13:43:00,76.5,58.6,30.20,SSE,158,2.0,-999.0,54,0.00,,,0.00,Wunderground v.1.15,2013-01-25 18:43:00,
2013-01-25 13:46:00,76.5,58.6,30.20,SSE,158,2.0,-999.0,54,0.00,,,0.00,Wunderground v.1.15,2013-01-25 18:46:00,
2013-01-25 13:48:00,76.4,58.0,30.20,SSW,203,3.0,-999.0,53,0.00,,,0.00,Wunderground v.1.15,2013-01-25 18:48:00,
2013-01-25 13:51:00,76.4,58.0,30.20,SSW,203,3.0,-999.0,53,0.00,,,0.00,Wunderground v.1.15,2013-01-25 18:51:00,
2013-01-25 13:53:00,76.3,57.9,30.20,SSW,203,3.0,-999.0,53,0.00,,,0.00,Wunderground v.1.15,2013-01-25 18:53:00,
2013-01-25 13:56:00,76.3,57.9,30.20,SSW,203,3.0,-999.0,53,0.00,,,0.00,Wunderground v.1.15,2013-01-25 18:56:00,
2013-01-25 13:58:00,76.4,57.5,30.20,SSE,158,3.0,-999.0,52,0.00,,,0.00,Wunderground v.1.15,2013-01-25 18:58:00,
2013-01-25 14:01:00,76.4,57.5,30.20,SSE,158,3.0,-999.0,52,0.00,,,0.00,Wunderground v.1.15,2013-01-25 19:01:00,
2013-01-25 14:03:00,76.2,57.3,30.20,West,270,2.0,-999.0,52,0.00,,,0.00,Wunderground v.1.15,2013-01-25 19:03:00,
2013-01-25 14:06:00,76.2,57.3,30.20,West,270,2.0,-999.0,52,0.00,,,0.00,Wunderground v.1.15,2013-01-25 19:06:00,
2013-01-25 14:08:00,76.2,56.7,30.20,West,270,2.0,-999.0,51,0.00,,,0.00,Wunderground v.1.15,2013-01-25 19:08:00,
2013-01-25 14:11:00,76.2,56.7,30.20,West,270,2.0,-999.0,51,0.00,,,0.00,Wunderground v.1.15,2013-01-25 19:11:00,
2013-01-25 14:13:00,76.1,56.7,30.20,WNW,293,2.0,-999.0,51,0.00,,,0.00,Wunderground v.1.15,2013-01-25 19:13:00,
2013-01-25 14:16:00,76.1,56.7,30.20,WNW,293,2.0,-999.0,51,0.00,,,0.00,Wunderground v.1.15,2013-01-25 19:16:00,
2013-01-25 14:18:00,76.4,56.4,30.19,SSE,158,2.0,-999.0,50,0.00,,,0.00,Wunderground v.1.15,2013-01-25 19:18:00,
2013-01-25 14:21:00,76.4,56.4,30.19,SSE,158,2.0,-999.0,50,0.00,,,0.00,Wunderground v.1.15,2013-01-25 19:21:00,
2013-01-25 14:23:00,76.4,57.5,30.19,SSE,158,3.0,-999.0,52,0.00,,,0.00,Wunderground v.1.15,2013-01-25 19:23:00,
2013-01-25 14:26:00,76.4,57.5,30.19,SSE,158,3.0,-999.0,52,0.00,,,0.00,Wunderground v.1.15,2013-01-25 19:26:00,
2013-01-25 14:28:00,76.5,57.6,30.19,WNW,293,2.0,-999.0,52,0.00,,,0.00,Wunderground v.1.15,2013-01-25 19:28:00,
2013-01-25 14:31:00,76.5,57.6,30.19,WNW,293,2.0,-999.0,52,0.00,,,0.00,Wunderground v.1.15,2013-01-25 19:31:00,
2013-01-25 14:33:00,76.4,58.0,30.19,West,270,2.0,-999.0,53,0.00,,,0.00,Wunderground v.1.15,2013-01-25 19:33:00,
2013-01-25 14:36:00,76.4,58.0,30.19,West,270,2.0,-999.0,53,0.00,,,0.00,Wunderground v.1.15,2013-01-25 19:36:00,
2013-01-25 14:38:00,76.5,57.6,30.19,West,270,2.0,-999.0,52,0.00,,,0.00,Wunderground v.1.15,2013-01-25 19:38:00,
2013-01-25 14:41:00,76.5,57.6,30.19,West,270,2.0,-999.0,52,0.00,,,0.00,Wunderground v.1.15,2013-01-25 19:41:00,
2013-01-25 14:43:00,76.4,58.5,30.19,West,270,2.0,-999.0,54,0.00,,,0.00,Wunderground v.1.15,2013-01-25 19:43:00,
2013-01-25 14:46:00,76.4,58.5,30.19,West,270,2.0,-999.0,54,0.00,,,0.00,Wunderground v.1.15,2013-01-25 19:46:00,
2013-01-25 14:48:00,76.5,58.1,30.18,SSE,158,2.0,-999.0,53,0.00,,,0.00,Wunderground v.1.15,2013-01-25 19:48:00,
2013-01-25 14:51:00,76.5,58.1,30.18,SSE,158,2.0,-999.0,53,0.00,,,0.00,Wunderground v.1.15,2013-01-25 19:51:00,
2013-01-25 14:53:00,76.7,58.8,30.18,WSW,248,1.0,-999.0,54,0.00,,,0.00,Wunderground v.1.15,2013-01-25 19:53:00,
2013-01-25 14:56:00,76.7,58.8,30.18,WSW,248,1.0,-999.0,54,0.00,,,0.00,Wunderground v.1.15,2013-01-25 19:56:00,
2013-01-25 14:58:00,76.6,58.7,30.18,West,270,2.0,-999.0,54,0.00,,,0.00,Wunderground v.1.15,2013-01-25 19:58:00,
2013-01-25 15:01:00,76.6,58.7,30.18,West,270,2.0,-999.0,54,0.00,,,0.00,Wunderground v.1.15,2013-01-25 20:01:00,
2013-01-25 15:03:00,76.4,59.0,30.18,SW,225,2.0,-999.0,55,0.00,,,0.00,Wunderground v.1.15,2013-01-25 20:03:00,
2013-01-25 15:06:00,76.4,59.0,30.18,SW,225,2.0,-999.0,55,0.00,,,0.00,Wunderground v.1.15,2013-01-25 20:06:00,
2013-01-25 15:08:00,76.2,58.9,30.18,WSW,248,2.0,-999.0,55,0.00,,,0.00,Wunderground v.1.15,2013-01-25 20:08:00,
2013-01-25 15:11:00,76.2,58.9,30.18,WSW,248,2.0,-999.0,55,0.00,,,0.00,Wunderground v.1.15,2013-01-25 20:11:00,
2013-01-25 15:13:00,76.2,59.9,30.18,West,270,1.0,-999.0,57,0.00,,,0.00,Wunderground v.1.15,2013-01-25 20:13:00,
2013-01-25 15:16:00,76.2,59.9,30.18,West,270,1.0,-999.0,57,0.00,,,0.00,Wunderground v.1.15,2013-01-25 20:16:00,
2013-01-25 15:18:00,76.3,58.4,30.18,SW,225,2.0,-999.0,54,0.00,,,0.00,Wunderground v.1.15,2013-01-25 20:18:00,
2013-01-25 15:21:00,76.3,58.4,30.18,SW,225,2.0,-999.0,54,0.00,,,0.00,Wunderground v.1.15,2013-01-25 20:21:00,
2013-01-25 15:23:00,76.1,58.2,30.18,SW,225,2.0,-999.0,54,0.00,,,0.00,Wunderground v.1.15,2013-01-25 20:23:00,
2013-01-25 15:26:00,76.1,58.2,30.18,SW,225,2.0,-999.0,54,0.00,,,0.00,Wunderground v.1.15,2013-01-25 20:26:00,
2013-01-25 15:28:00,75.6,58.8,30.18,West,270,3.0,-999.0,56,0.00,,,0.00,Wunderground v.1.15,2013-01-25 20:28:00,
2013-01-25 15:31:00,75.6,58.8,30.18,West,270,3.0,-999.0,56,0.00,,,0.00,Wunderground v.1.15,2013-01-25 20:31:00,
2013-01-25 15:33:00,75.7,59.4,30.18,SW,225,2.0,-999.0,57,0.00,,,0.00,Wunderground v.1.15,2013-01-25 20:33:00,
2013-01-25 15:36:00,75.7,59.4,30.18,SW,225,2.0,-999.0,57,0.00,,,0.00,Wunderground v.1.15,2013-01-25 20:36:00,
2013-01-25 15:38:00,76.1,59.8,30.18,West,270,2.0,-999.0,57,0.00,,,0.00,Wunderground v.1.15,2013-01-25 20:38:00,
2013-01-25 15:41:00,76.1,59.8,30.18,West,270,2.0,-999.0,57,0.00,,,0.00,Wunderground v.1.15,2013-01-25 20:41:00,
2013-01-25 15:43:00,76.0,59.7,30.18,SSW,203,2.0,-999.0,57,0.00,,,0.00,Wunderground v.1.15,2013-01-25 20:43:00,
2013-01-25 15:46:00,76.0,59.7,30.18,SSW,203,2.0,-999.0,57,0.00,,,0.00,Wunderground v.1.15,2013-01-25 20:46:00,
2013-01-25 15:48:00,75.8,59.5,30.17,West,270,2.0,-999.0,57,0.00,,,0.00,Wunderground v.1.15,2013-01-25 20:48:00,
2013-01-25 15:51:00,75.8,59.5,30.17,West,270,2.0,-999.0,57,0.00,,,0.00,Wunderground v.1.15,2013-01-25 20:51:00,
2013-01-25 15:53:00,75.8,59.5,30.18,SSE,158,3.0,-999.0,57,0.00,,,0.00,Wunderground v.1.15,2013-01-25 20:53:00,
2013-01-25 15:56:00,75.8,59.5,30.18,SSE,158,3.0,-999.0,57,0.00,,,0.00,Wunderground v.1.15,2013-01-25 20:56:00,
2013-01-25 15:58:00,76.1,59.8,30.18,SSE,158,2.0,-999.0,57,0.00,,,0.00,Wunderground v.1.15,2013-01-25 20:58:00,
2013-01-25 16:01:00,76.1,59.8,30.18,SSE,158,2.0,-999.0,57,0.00,,,0.00,Wunderground v.1.15,2013-01-25 21:01:00,
2013-01-25 16:03:00,76.4,59.5,30.18,SSE,158,2.0,-999.0,56,0.00,,,0.00,Wunderground v.1.15,2013-01-25 21:03:00,
2013-01-25 16:06:00,76.4,59.5,30.18,SSE,158,2.0,-999.0,56,0.00,,,0.00,Wunderground v.1.15,2013-01-25 21:06:00,
2013-01-25 16:08:00,76.6,59.7,30.17,SW,225,2.0,-999.0,56,0.00,,,0.00,Wunderground v.1.15,2013-01-25 21:08:00,
2013-01-25 16:11:00,76.6,59.7,30.17,SW,225,2.0,-999.0,56,0.00,,,0.00,Wunderground v.1.15,2013-01-25 21:11:00,
2013-01-25 16:13:00,76.1,59.8,30.17,South,180,2.0,-999.0,57,0.00,,,0.00,Wunderground v.1.15,2013-01-25 21:13:00,
2013-01-25 16:16:00,76.1,59.8,30.17,South,180,2.0,-999.0,57,0.00,,,0.00,Wunderground v.1.15,2013-01-25 21:16:00,
2013-01-25 16:18:00,76.0,60.2,30.17,SSW,203,2.0,-999.0,58,0.00,,,0.00,Wunderground v.1.15,2013-01-25 21:18:00,
2013-01-25 16:21:00,76.0,60.2,30.17,SSW,203,2.0,-999.0,58,0.00,,,0.00,Wunderground v.1.15,2013-01-25 21:21:00,
2013-01-25 16:23:00,75.9,60.1,30.17,SSE,158,2.0,-999.0,58,0.00,,,0.00,Wunderground v.1.15,2013-01-25 21:23:00,
2013-01-25 16:26:00,75.9,60.1,30.17,SSE,158,2.0,-999.0,58,0.00,,,0.00,Wunderground v.1.15,2013-01-25 21:26:00,
2013-01-25 16:28:00,76.5,61.1,30.17,SSE,158,1.0,-999.0,59,0.00,,,0.00,Wunderground v.1.15,2013-01-25 21:28:00,
2013-01-25 16:31:00,76.5,61.1,30.17,SSE,158,1.0,-999.0,59,0.00,,,0.00,Wunderground v.1.15,2013-01-25 21:31:00,
2013-01-25 16:33:00,75.6,59.3,30.18,West,270,2.0,-999.0,57,0.00,,,0.00,Wunderground v.1.15,2013-01-25 21:33:00,
2013-01-25 16:36:00,75.6,59.3,30.18,West,270,2.0,-999.0,57,0.00,,,0.00,Wunderground v.1.15,2013-01-25 21:36:00,
2013-01-25 16:38:00,75.5,60.2,30.18,West,270,1.0,-999.0,59,0.00,,,0.00,Wunderground v.1.15,2013-01-25 21:38:00,
2013-01-25 16:41:00,75.5,60.2,30.18,West,270,1.0,-999.0,59,0.00,,,0.00,Wunderground v.1.15,2013-01-25 21:41:00,
2013-01-25 16:43:00,75.4,60.1,30.18,SW,225,2.0,-999.0,59,0.00,,,0.00,Wunderground v.1.15,2013-01-25 21:43:00,
2013-01-25 16:46:00,75.4,60.1,30.18,SW,225,2.0,-999.0,59,0.00,,,0.00,Wunderground v.1.15,2013-01-25 21:46:00,
2013-01-25 16:48:00,75.0,59.7,30.18,West,270,1.0,-999.0,59,0.00,,,0.00,Wunderground v.1.15,2013-01-25 21:48:00,
2013-01-25 16:51:00,75.0,59.7,30.18,West,270,1.0,-999.0,59,0.00,,,0.00,Wunderground v.1.15,2013-01-25 21:51:00,
2013-01-25 16:53:00,75.3,60.0,30.18,SSE,158,2.0,-999.0,59,0.00,,,0.00,Wunderground v.1.15,2013-01-25 21:53:00,
2013-01-25 16:56:00,75.3,60.0,30.18,SSE,158,2.0,-999.0,59,0.00,,,0.00,Wunderground v.1.15,2013-01-25 21:56:00,
2013-01-25 16:58:00,75.3,59.5,30.18,SSE,158,2.0,-999.0,58,0.00,,,0.00,Wunderground v.1.15,2013-01-25 21:58:00,
2013-01-25 17:01:00,75.3,59.5,30.18,SSE,158,2.0,-999.0,58,0.00,,,0.00,Wunderground v.1.15,2013-01-25 22:01:00,
2013-01-25 17:03:00,75.4,59.6,30.18,SSE,158,2.0,-999.0,58,0.00,,,0.00,Wunderground v.1.15,2013-01-25 22:03:00,
2013-01-25 17:06:00,75.4,59.6,30.18,SSE,158,2.0,-999.0,58,0.00,,,0.00,Wunderground v.1.15,2013-01-25 22:06:00,
2013-01-25 17:08:00,75.6,60.3,30.18,SSE,158,0.0,-999.0,59,0.00,,,0.00,Wunderground v.1.15,2013-01-25 22:08:00,
2013-01-25 17:11:00,75.6,60.3,30.18,SSE,158,0.0,-999.0,59,0.00,,,0.00,Wunderground v.1.15,2013-01-25 22:11:00,
2013-01-25 17:13:00,75.3,60.0,30.18,West,270,1.0,-999.0,59,0.00,,,0.00,Wunderground v.1.15,2013-01-25 22:13:00,
2013-01-25 17:16:00,75.3,60.0,30.18,West,270,1.0,-999.0,59,0.00,,,0.00,Wunderground v.1.15,2013-01-25 22:16:00,
2013-01-25 17:18:00,75.2,59.9,30.18,South,180,1.0,-999.0,59,0.00,,,0.00,Wunderground v.1.15,2013-01-25 22:18:00,
2013-01-25 17:21:00,75.2,59.9,30.18,South,180,1.0,-999.0,59,0.00,,,0.00,Wunderground v.1.15,2013-01-25 22:21:00,
2013-01-25 17:23:00,74.9,59.6,30.18,SSW,203,1.0,-999.0,59,0.00,,,0.00,Wunderground v.1.15,2013-01-25 22:23:00,
2013-01-25 17:26:00,74.9,59.6,30.18,SSW,203,1.0,-999.0,59,0.00,,,0.00,Wunderground v.1.15,2013-01-25 22:26:00,
2013-01-25 17:28:00,74.9,60.1,30.19,SSW,203,1.0,-999.0,60,0.00,,,0.00,Wunderground v.1.15,2013-01-25 22:28:00,
2013-01-25 17:31:00,74.9,60.1,30.19,SSW,203,1.0,-999.0,60,0.00,,,0.00,Wunderground v.1.15,2013-01-25 22:31:00,
2013-01-25 17:33:00,74.6,59.8,30.19,SSW,203,1.0,-999.0,60,0.00,,,0.00,Wunderground v.1.15,2013-01-25 22:33:00,
2013-01-25 17:36:00,74.6,59.8,30.19,SSW,203,1.0,-999.0,60,0.00,,,0.00,Wunderground v.1.15,2013-01-25 22:36:00,
2013-01-25 17:38:00,74.2,59.9,30.19,SSW,203,1.0,-999.0,61,0.00,,,0.00,Wunderground v.1.15,2013-01-25 22:38:00,
2013-01-25 17:41:00,74.2,59.9,30.19,SSW,203,1.0,-999.0,61,0.00,,,0.00,Wunderground v.1.15,2013-01-25 22:41:00,
2013-01-25 17:43:00,73.8,59.5,30.19,SSW,203,0.0,-999.0,61,0.00,,,0.00,Wunderground v.1.15,2013-01-25 22:43:00,
2013-01-25 17:46:00,73.8,59.5,30.19,SSW,203,0.0,-999.0,61,0.00,,,0.00,Wunderground v.1.15,2013-01-25 22:46:00,
2013-01-25 17:48:00,73.1,59.3,30.19,SW,225,1.0,-999.0,62,0.00,,,0.00,Wunderground v.1.15,2013-01-25 22:48:00,
2013-01-25 17:51:00,73.1,59.3,30.19,SW,225,1.0,-999.0,62,0.00,,,0.00,Wunderground v.1.15,2013-01-25 22:51:00,
2013-01-25 17:53:00,72.6,59.3,30.19,SSW,203,1.0,-999.0,63,0.00,,,0.00,Wunderground v.1.15,2013-01-25 22:53:00,
2013-01-25 17:56:00,72.6,59.3,30.19,SSW,203,1.0,-999.0,63,0.00,,,0.00,Wunderground v.1.15,2013-01-25 22:56:00,
2013-01-25 17:58:00,72.1,59.2,30.19,SSW,203,1.0,-999.0,64,0.00,,,0.00,Wunderground v.1.15,2013-01-25 22:58:00,
2013-01-25 18:01:00,72.1,59.2,30.19,SSW,203,1.0,-999.0,64,0.00,,,0.00,Wunderground v.1.15,2013-01-25 23:01:00,
2013-01-25 18:03:00,71.7,59.3,30.19,SW,225,1.0,-999.0,65,0.00,,,0.00,Wunderground v.1.15,2013-01-25 23:03:00,
2013-01-25 18:06:00,71.7,59.3,30.19,SW,225,1.0,-999.0,65,0.00,,,0.00,Wunderground v.1.15,2013-01-25 23:06:00,
2013-01-25 18:08:00,71.4,59.0,30.19,SSW,203,1.0,-999.0,65,0.00,,,0.00,Wunderground v.1.15,2013-01-25 23:08:00,
2013-01-25 18:11:00,71.4,59.0,30.19,SSW,203,1.0,-999.0,65,0.00,,,0.00,Wunderground v.1.15,2013-01-25 23:11:00,
2013-01-25 18:13:00,71.1,59.2,30.19,SSW,203,1.0,-999.0,66,0.00,,,0.00,Wunderground v.1.15,2013-01-25 23:13:00,
2013-01-25 18:16:00,71.1,59.2,30.19,SSW,203,1.0,-999.0,66,0.00,,,0.00,Wunderground v.1.15,2013-01-25 23:16:00,
2013-01-25 18:18:00,71.0,59.5,30.19,SSW,203,0.0,-999.0,67,0.00,,,0.00,Wunderground v.1.15,2013-01-25 23:18:00,
2013-01-25 18:21:00,71.0,59.5,30.19,SSW,203,0.0,-999.0,67,0.00,,,0.00,Wunderground v.1.15,2013-01-25 23:21:00,
2013-01-25 18:23:00,70.8,59.7,30.20,N/A,-737280,0.0,-999.0,68,0.00,,,0.00,Wunderground v.1.15,2013-01-25 23:23:00,
2013-01-25 18:26:00,70.8,59.7,30.20,N/A,-737280,0.0,-999.0,68,0.00,,,0.00,Wunderground v.1.15,2013-01-25 23:26:00,
2013-01-25 18:28:00,70.6,59.5,30.20,N/A,-737280,0.0,-999.0,68,0.00,,,0.00,Wunderground v.1.15,2013-01-25 23:28:00,
2013-01-25 18:31:00,70.6,59.5,30.20,N/A,-737280,0.0,-999.0,68,0.00,,,0.00,Wunderground v.1.15,2013-01-25 23:31:00,
2013-01-25 18:33:00,70.4,59.7,30.20,N/A,-737280,0.0,-999.0,69,0.00,,,0.00,Wunderground v.1.15,2013-01-25 23:33:00,
2013-01-25 18:36:00,70.4,59.7,30.20,N/A,-737280,0.0,-999.0,69,0.00,,,0.00,Wunderground v.1.15,2013-01-25 23:36:00,
2013-01-25 18:38:00,70.3,59.6,30.20,SW,225,1.0,-999.0,69,0.00,,,0.00,Wunderground v.1.15,2013-01-25 23:38:00,
2013-01-25 18:41:00,70.3,59.6,30.20,SW,225,1.0,-999.0,69,0.00,,,0.00,Wunderground v.1.15,2013-01-25 23:41:00,
2013-01-25 18:43:00,70.3,59.6,30.20,SSW,203,0.0,-999.0,69,0.00,,,0.00,Wunderground v.1.15,2013-01-25 23:43:00,
2013-01-25 18:46:00,70.3,59.6,30.20,SSW,203,0.0,-999.0,69,0.00,,,0.00,Wunderground v.1.15,2013-01-25 23:46:00,
2013-01-25 18:48:00,70.1,59.9,30.19,N/A,-737280,0.0,-999.0,70,0.00,,,0.00,Wunderground v.1.15,2013-01-25 23:48:00,
2013-01-25 18:51:00,70.1,59.9,30.19,N/A,-737280,0.0,-999.0,70,0.00,,,0.00,Wunderground v.1.15,2013-01-25 23:51:00,
2013-01-25 18:53:00,69.9,59.7,30.19,SSW,203,0.0,-999.0,70,0.00,,,0.00,Wunderground v.1.15,2013-01-25 23:53:00,
2013-01-25 18:56:00,69.9,59.7,30.19,SSW,203,0.0,-999.0,70,0.00,,,0.00,Wunderground v.1.15,2013-01-25 23:56:00,
2013-01-25 18:58:00,69.8,59.6,30.19,SSW,203,0.0,-999.0,70,0.00,,,0.00,Wunderground v.1.15,2013-01-25 23:58:00,
2013-01-25 19:01:00,69.8,59.6,30.19,SSW,203,0.0,-999.0,70,0.00,,,0.00,Wunderground v.1.15,2013-01-26 00:01:00,
2013-01-25 19:03:00,69.9,60.1,30.20,N/A,-737280,0.0,-999.0,71,0.00,,,0.00,Wunderground v.1.15,2013-01-26 00:03:00,
2013-01-25 19:06:00,69.9,60.1,30.20,N/A,-737280,0.0,-999.0,71,0.00,,,0.00,Wunderground v.1.15,2013-01-26 00:06:00,
2013-01-25 19:08:00,70.0,60.2,30.20,N/A,-737280,0.0,-999.0,71,0.00,,,0.00,Wunderground v.1.15,2013-01-26 00:08:00,
2013-01-25 19:11:00,70.0,60.2,30.20,N/A,-737280,0.0,-999.0,71,0.00,,,0.00,Wunderground v.1.15,2013-01-26 00:11:00,
2013-01-25 19:13:00,70.1,59.9,30.20,N/A,-737280,0.0,-999.0,70,0.00,,,0.00,Wunderground v.1.15,2013-01-26 00:13:00,
2013-01-25 19:16:00,70.1,59.9,30.20,N/A,-737280,0.0,-999.0,70,0.00,,,0.00,Wunderground v.1.15,2013-01-26 00:16:00,
2013-01-25 19:18:00,70.1,59.9,30.20,N/A,-737280,0.0,-999.0,70,0.00,,,0.00,Wunderground v.1.15,2013-01-26 00:18:00,
2013-01-25 19:21:00,70.1,59.9,30.20,N/A,-737280,0.0,-999.0,70,0.00,,,0.00,Wunderground v.1.15,2013-01-26 00:21:00,
2013-01-25 19:23:00,70.1,59.9,30.20,N/A,-737280,0.0,-999.0,70,0.00,,,0.00,Wunderground v.1.15,2013-01-26 00:23:00,
2013-01-25 19:26:00,70.1,59.9,30.20,N/A,-737280,0.0,-999.0,70,0.00,,,0.00,Wunderground v.1.15,2013-01-26 00:26:00,
2013-01-25 19:28:00,70.0,59.8,30.20,N/A,-737280,0.0,-999.0,70,0.00,,,0.00,Wunderground v.1.15,2013-01-26 00:28:00,
2013-01-25 19:31:00,70.0,59.8,30.20,N/A,-737280,0.0,-999.0,70,0.00,,,0.00,Wunderground v.1.15,2013-01-26 00:31:00,
2013-01-25 19:33:00,69.9,60.1,30.20,N/A,-737280,0.0,-999.0,71,0.00,,,0.00,Wunderground v.1.15,2013-01-26 00:33:00,
2013-01-25 19:36:00,69.9,60.1,30.20,N/A,-737280,0.0,-999.0,71,0.00,,,0.00,Wunderground v.1.15,2013-01-26 00:36:00,
2013-01-25 19:38:00,69.7,59.9,30.19,N/A,-737280,0.0,-999.0,71,0.00,,,0.00,Wunderground v.1.15,2013-01-26 00:38:00,
2013-01-25 19:41:00,69.7,59.9,30.19,N/A,-737280,0.0,-999.0,71,0.00,,,0.00,Wunderground v.1.15,2013-01-26 00:41:00,
2013-01-25 19:43:00,69.7,60.3,30.19,N/A,-737280,0.0,-999.0,72,0.00,,,0.00,Wunderground v.1.15,2013-01-26 00:43:00,
2013-01-25 19:46:00,69.7,60.3,30.19,N/A,-737280,0.0,-999.0,72,0.00,,,0.00,Wunderground v.1.15,2013-01-26 00:46:00,
2013-01-25 19:48:00,69.6,59.8,30.19,N/A,-737280,0.0,-999.0,71,0.00,,,0.00,Wunderground v.1.15,2013-01-26 00:48:00,
2013-01-25 19:51:00,69.6,59.8,30.19,N/A,-737280,0.0,-999.0,71,0.00,,,0.00,Wunderground v.1.15,2013-01-26 00:51:00,
2013-01-25 19:53:00,69.5,59.3,30.19,N/A,-737280,0.0,-999.0,70,0.00,,,0.00,Wunderground v.1.15,2013-01-26 00:53:00,
2013-01-25 19:56:00,69.5,59.3,30.19,N/A,-737280,0.0,-999.0,70,0.00,,,0.00,Wunderground v.1.15,2013-01-26 00:56:00,
2013-01-25 19:58:00,69.4,60.4,30.20,N/A,-737280,0.0,-999.0,73,0.00,,,0.00,Wunderground v.1.15,2013-01-26 00:58:00,
2013-01-25 20:01:00,69.4,60.4,30.20,N/A,-737280,0.0,-999.0,73,0.00,,,0.00,Wunderground v.1.15,2013-01-26 01:01:00,
2013-01-25 20:03:00,69.1,60.1,30.20,N/A,-737280,0.0,-999.0,73,0.00,,,0.00,Wunderground v.1.15,2013-01-26 01:03:00,
2013-01-25 20:06:00,69.1,60.1,30.20,N/A,-737280,0.0,-999.0,73,0.00,,,0.00,Wunderground v.1.15,2013-01-26 01:06:00,
2013-01-25 20:08:00,69.0,60.0,30.20,SW,225,1.0,-999.0,73,0.00,,,0.00,Wunderground v.1.15,2013-01-26 01:08:00,
2013-01-25 20:11:00,69.0,60.0,30.20,SW,225,1.0,-999.0,73,0.00,,,0.00,Wunderground v.1.15,2013-01-26 01:11:00,
2013-01-25 20:13:00,69.2,60.2,30.20,SSW,203,1.0,-999.0,73,0.00,,,0.00,Wunderground v.1.15,2013-01-26 01:13:00,
2013-01-25 20:16:00,69.2,60.2,30.20,SSW,203,1.0,-999.0,73,0.00,,,0.00,Wunderground v.1.15,2013-01-26 01:16:00,
2013-01-25 20:18:00,69.4,60.0,30.20,SW,225,0.0,-999.0,72,0.00,,,0.00,Wunderground v.1.15,2013-01-26 01:18:00,
2013-01-25 20:21:00,69.4,60.0,30.20,SW,225,0.0,-999.0,72,0.00,,,0.00,Wunderground v.1.15,2013-01-26 01:21:00,
2013-01-25 20:23:00,69.5,60.5,30.20,N/A,-737280,0.0,-999.0,73,0.00,,,0.00,Wunderground v.1.15,2013-01-26 01:23:00,
2013-01-25 20:26:00,69.5,60.5,30.20,N/A,-737280,0.0,-999.0,73,0.00,,,0.00,Wunderground v.1.15,2013-01-26 01:26:00,
2013-01-25 20:28:00,69.4,60.4,30.20,SW,225,0.0,-999.0,73,0.00,,,0.00,Wunderground v.1.15,2013-01-26 01:28:00,
2013-01-25 20:31:00,69.4,60.4,30.20,SW,225,0.0,-999.0,73,0.00,,,0.00,Wunderground v.1.15,2013-01-26 01:31:00,
2013-01-25 20:33:00,69.5,60.8,30.20,SW,225,0.0,-999.0,74,0.00,,,0.00,Wunderground v.1.15,2013-01-26 01:33:00,
2013-01-25 20:36:00,69.5,60.8,30.20,SW,225,0.0,-999.0,74,0.00,,,0.00,Wunderground v.1.15,2013-01-26 01:36:00,
2013-01-25 20:38:00,69.1,60.5,30.20,N/A,-737280,0.0,-999.0,74,0.00,,,0.00,Wunderground v.1.15,2013-01-26 01:38:00,
2013-01-25 20:41:00,69.1,60.5,30.20,N/A,-737280,0.0,-999.0,74,0.00,,,0.00,Wunderground v.1.15,2013-01-26 01:41:00,
2013-01-25 20:43:00,68.8,60.6,30.21,SSW,203,0.0,-999.0,75,0.00,,,0.00,Wunderground v.1.15,2013-01-26 01:43:00,
2013-01-25 20:46:00,68.8,60.6,30.21,SSW,203,0.0,-999.0,75,0.00,,,0.00,Wunderground v.1.15,2013-01-26 01:46:00,
2013-01-25 20:48:00,68.3,60.4,30.20,N/A,-737280,0.0,-999.0,76,0.00,,,0.00,Wunderground v.1.15,2013-01-26 01:48:00,
2013-01-25 20:51:00,68.3,60.4,30.20,N/A,-737280,0.0,-999.0,76,0.00,,,0.00,Wunderground v.1.15,2013-01-26 01:51:00,
2013-01-25 20:53:00,68.0,60.2,30.20,N/A,-737280,0.0,-999.0,76,0.00,,,0.00,Wunderground v.1.15,2013-01-26 01:53:00,
2013-01-25 20:56:00,68.0,60.2,30.20,N/A,-737280,0.0,-999.0,76,0.00,,,0.00,Wunderground v.1.15,2013-01-26 01:56:00,
2013-01-25 20:58:00,67.6,60.1,30.21,N/A,-737280,0.0,-999.0,77,0.00,,,0.00,Wunderground v.1.15,2013-01-26 01:58:00,
2013-01-25 21:01:00,67.6,60.1,30.21,N/A,-737280,0.0,-999.0,77,0.00,,,0.00,Wunderground v.1.15,2013-01-26 02:01:00,
2013-01-25 21:03:00,67.1,59.6,30.20,N/A,-737280,0.0,-999.0,77,0.00,,,0.00,Wunderground v.1.15,2013-01-26 02:03:00,
2013-01-25 21:06:00,67.1,59.6,30.20,N/A,-737280,0.0,-999.0,77,0.00,,,0.00,Wunderground v.1.15,2013-01-26 02:06:00,
2013-01-25 21:08:00,66.9,60.2,30.21,N/A,-737280,0.0,-999.0,79,0.00,,,0.00,Wunderground v.1.15,2013-01-26 02:08:00,
2013-01-25 21:11:00,66.9,60.2,30.21,N/A,-737280,0.0,-999.0,79,0.00,,,0.00,Wunderground v.1.15,2013-01-26 02:11:00,
2013-01-25 21:13:00,66.7,60.0,30.21,N/A,-737280,0.0,-999.0,79,0.00,,,0.00,Wunderground v.1.15,2013-01-26 02:13:00,
2013-01-25 21:16:00,66.7,60.0,30.21,N/A,-737280,0.0,-999.0,79,0.00,,,0.00,Wunderground v.1.15,2013-01-26 02:16:00,
2013-01-25 21:18:00,66.5,60.1,30.21,N/A,-737280,0.0,-999.0,80,0.00,,,0.00,Wunderground v.1.15,2013-01-26 02:18:00,
2013-01-25 21:21:00,66.5,60.1,30.21,N/A,-737280,0.0,-999.0,80,0.00,,,0.00,Wunderground v.1.15,2013-01-26 02:21:00,
2013-01-25 21:23:00,66.3,59.9,30.21,N/A,-737280,0.0,-999.0,80,0.00,,,0.00,Wunderground v.1.15,2013-01-26 02:23:00,
2013-01-25 21:26:00,66.3,59.9,30.21,N/A,-737280,0.0,-999.0,80,0.00,,,0.00,Wunderground v.1.15,2013-01-26 02:26:00,
2013-01-25 21:28:00,66.2,60.5,30.21,N/A,-737280,0.0,-999.0,82,0.00,,,0.00,Wunderground v.1.15,2013-01-26 02:28:00,
2013-01-25 21:31:00,66.2,60.5,30.21,N/A,-737280,0.0,-999.0,82,0.00,,,0.00,Wunderground v.1.15,2013-01-26 02:31:00,
2013-01-25 21:33:00,66.0,60.3,30.21,N/A,-737280,0.0,-999.0,82,0.00,,,0.00,Wunderground v.1.15,2013-01-26 02:33:00,
2013-01-25 21:36:00,66.0,60.3,30.21,N/A,-737280,0.0,-999.0,82,0.00,,,0.00,Wunderground v.1.15,2013-01-26 02:36:00,
2013-01-25 21:38:00,66.0,61.0,30.21,N/A,-737280,0.0,-999.0,84,0.00,,,0.00,Wunderground v.1.15,2013-01-26 02:38:00,
2013-01-25 21:41:00,66.0,61.0,30.21,N/A,-737280,0.0,-999.0,84,0.00,,,0.00,Wunderground v.1.15,2013-01-26 02:41:00,
2013-01-25 21:43:00,65.8,60.8,30.21,N/A,-737280,0.0,-999.0,84,0.00,,,0.00,Wunderground v.1.15,2013-01-26 02:43:00,
2013-01-25 21:46:00,65.8,60.8,30.21,N/A,-737280,0.0,-999.0,84,0.00,,,0.00,Wunderground v.1.15,2013-01-26 02:46:00,
2013-01-25 21:48:00,65.5,60.5,30.21,N/A,-737280,0.0,-999.0,84,0.00,,,0.00,Wunderground v.1.15,2013-01-26 02:48:00,
2013-01-25 21:51:00,65.5,60.5,30.21,N/A,-737280,0.0,-999.0,84,0.00,,,0.00,Wunderground v.1.15,2013-01-26 02:51:00,
2013-01-25 21:53:00,65.4,60.8,30.21,N/A,-737280,0.0,-999.0,85,0.00,,,0.00,Wunderground v.1.15,2013-01-26 02:53:00,
2013-01-25 21:56:00,65.4,60.8,30.21,N/A,-737280,0.0,-999.0,85,0.00,,,0.00,Wunderground v.1.15,2013-01-26 02:56:00,
2013-01-25 21:58:00,65.2,60.6,30.21,N/A,-737280,0.0,-999.0,85,0.00,,,0.00,Wunderground v.1.15,2013-01-26 02:58:00,
2013-01-25 22:01:00,65.2,60.6,30.21,N/A,-737280,0.0,-999.0,85,0.00,,,0.00,Wunderground v.1.15,2013-01-26 03:01:00,
2013-01-25 22:03:00,65.1,60.8,30.21,N/A,-737280,0.0,-999.0,86,0.00,,,0.00,Wunderground v.1.15,2013-01-26 03:03:00,
2013-01-25 22:06:00,65.1,60.8,30.21,N/A,-737280,0.0,-999.0,86,0.00,,,0.00,Wunderground v.1.15,2013-01-26 03:06:00,
2013-01-25 22:08:00,65.0,60.7,30.21,N/A,-737280,0.0,-999.0,86,0.00,,,0.00,Wunderground v.1.15,2013-01-26 03:08:00,
2013-01-25 22:11:00,65.0,60.7,30.21,N/A,-737280,0.0,-999.0,86,0.00,,,0.00,Wunderground v.1.15,2013-01-26 03:11:00,
2013-01-25 22:13:00,64.7,60.4,30.21,N/A,-737280,0.0,-999.0,86,0.00,,,0.00,Wunderground v.1.15,2013-01-26 03:13:00,
2013-01-25 22:16:00,64.7,60.4,30.21,N/A,-737280,0.0,-999.0,86,0.00,,,0.00,Wunderground v.1.15,2013-01-26 03:16:00,
2013-01-25 22:18:00,64.6,60.3,30.21,N/A,-737280,0.0,-999.0,86,0.00,,,0.00,Wunderground v.1.15,2013-01-26 03:18:00,
2013-01-25 22:21:00,64.6,60.3,30.21,N/A,-737280,0.0,-999.0,86,0.00,,,0.00,Wunderground v.1.15,2013-01-26 03:21:00,
2013-01-25 22:23:00,64.7,60.4,30.21,N/A,-737280,0.0,-999.0,86,0.00,,,0.00,Wunderground v.1.15,2013-01-26 03:23:00,
2013-01-25 22:26:00,64.7,60.4,30.21,N/A,-737280,0.0,-999.0,86,0.00,,,0.00,Wunderground v.1.15,2013-01-26 03:26:00,
2013-01-25 22:28:00,64.8,60.5,30.21,N/A,-737280,0.0,-999.0,86,0.00,,,0.00,Wunderground v.1.15,2013-01-26 03:28:00,
2013-01-25 22:31:00,64.8,60.5,30.21,N/A,-737280,0.0,-999.0,86,0.00,,,0.00,Wunderground v.1.15,2013-01-26 03:31:00,
2013-01-25 22:33:00,64.8,60.8,30.21,N/A,-737280,0.0,-999.0,87,0.00,,,0.00,Wunderground v.1.15,2013-01-26 03:33:00,
2013-01-25 22:36:00,64.8,60.8,30.21,N/A,-737280,0.0,-999.0,87,0.00,,,0.00,Wunderground v.1.15,2013-01-26 03:36:00,
2013-01-25 22:38:00,64.6,60.3,30.21,N/A,-737280,0.0,-999.0,86,0.00,,,0.00,Wunderground v.1.15,2013-01-26 03:38:00,
2013-01-25 22:41:00,64.6,60.3,30.21,N/A,-737280,0.0,-999.0,86,0.00,,,0.00,Wunderground v.1.15,2013-01-26 03:41:00,
2013-01-25 22:43:00,64.3,60.0,30.21,N/A,-737280,0.0,-999.0,86,0.00,,,0.00,Wunderground v.1.15,2013-01-26 03:43:00,
2013-01-25 22:46:00,64.3,60.0,30.21,N/A,-737280,0.0,-999.0,86,0.00,,,0.00,Wunderground v.1.15,2013-01-26 03:46:00,
2013-01-25 22:48:00,64.1,59.8,30.21,N/A,-737280,0.0,-999.0,86,0.00,,,0.00,Wunderground v.1.15,2013-01-26 03:48:00,
2013-01-25 22:51:00,64.1,59.8,30.21,N/A,-737280,0.0,-999.0,86,0.00,,,0.00,Wunderground v.1.15,2013-01-26 03:51:00,
2013-01-25 22:53:00,63.9,60.0,30.21,N/A,-737280,0.0,-999.0,87,0.00,,,0.00,Wunderground v.1.15,2013-01-26 03:53:00,
2013-01-25 22:56:00,63.9,60.0,30.21,N/A,-737280,0.0,-999.0,87,0.00,,,0.00,Wunderground v.1.15,2013-01-26 03:56:00,
2013-01-25 22:58:00,64.3,60.7,30.21,N/A,-737280,0.0,-999.0,88,0.00,,,0.00,Wunderground v.1.15,2013-01-26 03:58:00,
2013-01-25 23:01:00,64.3,60.7,30.21,N/A,-737280,0.0,-999.0,88,0.00,,,0.00,Wunderground v.1.15,2013-01-26 04:01:00,
2013-01-25 23:03:00,64.3,60.7,30.21,N/A,-737280,0.0,-999.0,88,0.00,,,0.00,Wunderground v.1.15,2013-01-26 04:03:00,
2013-01-25 23:06:00,64.3,60.7,30.21,N/A,-737280,0.0,-999.0,88,0.00,,,0.00,Wunderground v.1.15,2013-01-26 04:06:00,
2013-01-25 23:08:00,64.2,60.6,30.21,N/A,-737280,0.0,-999.0,88,0.00,,,0.00,Wunderground v.1.15,2013-01-26 04:08:00,
2013-01-25 23:11:00,64.2,60.6,30.21,N/A,-737280,0.0,-999.0,88,0.00,,,0.00,Wunderground v.1.15,2013-01-26 04:11:00,
2013-01-25 23:13:00,64.4,60.4,30.21,N/A,-737280,0.0,-999.0,87,0.00,,,0.00,Wunderground v.1.15,2013-01-26 04:13:00,
2013-01-25 23:16:00,64.4,60.4,30.21,N/A,-737280,0.0,-999.0,87,0.00,,,0.00,Wunderground v.1.15,2013-01-26 04:16:00,
2013-01-25 23:18:00,64.3,60.3,30.21,N/A,-737280,0.0,-999.0,87,0.00,,,0.00,Wunderground v.1.15,2013-01-26 04:18:00,
2013-01-25 23:21:00,64.3,60.3,30.21,N/A,-737280,0.0,-999.0,87,0.00,,,0.00,Wunderground v.1.15,2013-01-26 04:21:00,
2013-01-25 23:23:00,64.3,60.0,30.21,N/A,-737280,0.0,-999.0,86,0.00,,,0.00,Wunderground v.1.15,2013-01-26 04:23:00,
2013-01-25 23:26:00,64.3,60.0,30.21,N/A,-737280,0.0,-999.0,86,0.00,,,0.00,Wunderground v.1.15,2013-01-26 04:26:00,
2013-01-25 23:28:00,64.0,59.7,30.21,N/A,-737280,0.0,-999.0,86,0.00,,,0.00,Wunderground v.1.15,2013-01-26 04:28:00,
2013-01-25 23:31:00,64.0,59.7,30.21,N/A,-737280,0.0,-999.0,86,0.00,,,0.00,Wunderground v.1.15,2013-01-26 04:31:00,
2013-01-25 23:33:00,63.9,59.6,30.21,SE,135,0.0,-999.0,86,0.00,,,0.00,Wunderground v.1.15,2013-01-26 04:33:00,
2013-01-25 23:36:00,63.9,59.6,30.21,SE,135,0.0,-999.0,86,0.00,,,0.00,Wunderground v.1.15,2013-01-26 04:36:00,
2013-01-25 23:38:00,64.0,59.7,30.21,N/A,-737280,0.0,-999.0,86,0.00,,,0.00,Wunderground v.1.15,2013-01-26 04:38:00,
2013-01-25 23:41:00,64.0,59.7,30.21,N/A,-737280,0.0,-999.0,86,0.00,,,0.00,Wunderground v.1.15,2013-01-26 04:41:00,
2013-01-25 23:43:00,63.9,59.6,30.21,N/A,-737280,0.0,-999.0,86,0.00,,,0.00,Wunderground v.1.15,2013-01-26 04:43:00,
2013-01-25 23:46:00,63.9,59.6,30.21,N/A,-737280,0.0,-999.0,86,0.00,,,0.00,Wunderground v.1.15,2013-01-26 04:46:00,
2013-01-25 23:48:00,63.9,59.6,30.21,N/A,-737280,0.0,-999.0,86,0.00,,,0.00,Wunderground v.1.15,2013-01-26 04:48:00,
2013-01-25 23:51:00,63.9,59.6,30.21,N/A,-737280,0.0,-999.0,86,0.00,,,0.00,Wunderground v.1.15,2013-01-26 04:51:00,
2013-01-25 23:53:00,63.8,59.5,30.21,N/A,-737280,0.0,-999.0,86,0.00,,,0.00,Wunderground v.1.15,2013-01-26 04:53:00,
2013-01-25 23:56:00,63.8,59.5,30.21,N/A,-737280,0.0,-999.0,86,0.00,,,0.00,Wunderground v.1.15,2013-01-26 04:56:00,
2013-01-25 23:58:00,63.9,60.0,30.21,N/A,-737280,0.0,-999.0,87,0.00,,,0.00,Wunderground v.1.15,2013-01-26 04:58:00,